GFSNW_500_temp_171.txt.gz
Temp
-25 -25 -25 -25 -25 -25 -25 -25 -25 -24 -25 -25 -26 -25 -24 -24 -23 -23 -23 -23 -23 -24 -24 -24 -24 -23 -23 -23 -22 -21 -21 -20 -19 -20 -20 -19 -19 -20 -20 -19 -18 -18 -18 -18
-26 -26 -26 -26 -26 -26 -26 -26 -26 -26 -27 -26 -26 -26 -26 -26 -25 -24 -24 -24 -25 -25 -25 -25 -24 -24 -24 -24 -23 -23 -23 -22 -21 -20 -21 -21 -21 -20 -20 -19 -19 -19 -20 -19
-27 -27 -27 -27 -27 -27 -27 -27 -27 -27 -27 -27 -26 -25 -26 -26 -26 -26 -25 -25 -26 -26 -26 -25 -25 -25 -24 -25 -24 -24 -24 -24 -23 -22 -22 -21 -21 -21 -21 -20 -20 -20 -20 -20
-28 -28 -28 -28 -28 -28 -27 -27 -27 -27 -27 -27 -27 -26 -26 -27 -26 -26 -26 -26 -26 -26 -26 -26 -26 -25 -25 -25 -25 -25 -25 -24 -24 -23 -23 -22 -22 -22 -22 -22 -22 -22 -21 -21
-29 -29 -29 -29 -29 -29 -29 -28 -28 -28 -27 -27 -28 -27 -27 -27 -27 -27 -27 -27 -26 -27 -26 -26 -26 -26 -26 -26 -25 -25 -25 -25 -24 -24 -23 -23 -23 -22 -22 -22 -22 -23 -23 -21
-29 -30 -30 -30 -30 -30 -29 -29 -29 -29 -29 -29 -29 -28 -27 -27 -27 -27 -27 -27 -27 -27 -27 -27 -27 -27 -26 -26 -26 -26 -25 -25 -25 -24 -24 -24 -24 -23 -23 -23 -23 -23 -23 -22
-30 -30 -30 -30 -30 -30 -30 -30 -30 -30 -29 -29 -28 -28 -28 -27 -27 -28 -28 -27 -27 -27 -27 -27 -27 -27 -27 -27 -27 -27 -26 -26 -26 -26 -25 -25 -24 -24 -23 -24 -24 -24 -24 -23
-30 -30 -30 -30 -30 -30 -30 -30 -30 -30 -29 -29 -29 -28 -28 -28 -28 -28 -28 -27 -27 -27 -27 -27 -28 -27 -28 -27 -27 -27 -27 -27 -27 -26 -26 -26 -25 -24 -25 -26 -25 -25 -25 -25
-31 -30 -30 -30 -31 -31 -30 -30 -30 -30 -30 -29 -29 -28 -28 -28 -28 -28 -28 -27 -28 -27 -28 -28 -28 -28 -28 -28 -27 -27 -27 -27 -27 -27 -27 -27 -25 -25 -26 -27 -26 -25 -26 -25
-31 -31 -31 -31 -31 -31 -31 -31 -30 -30 -30 -30 -30 -29 -29 -28 -28 -28 -28 -28 -28 -28 -28 -28 -28 -28 -28 -28 -28 -28 -28 -27 -27 -27 -27 -26 -26 -26 -27 -27 -25 -25 -25 -25
-31 -31 -31 -31 -31 -31 -31 -31 -31 -31 -31 -31 -30 -30 -29 -29 -28 -28 -28 -28 -28 -28 -29 -28 -29 -29 -29 -29 -28 -28 -28 -28 -28 -27 -27 -27 -27 -27 -27 -26 -26 -26 -25 -25
-31 -31 -31 -32 -32 -32 -31 -31 -31 -31 -31 -31 -30 -30 -30 -29 -29 -29 -29 -29 -29 -29 -29 -29 -29 -29 -28 -29 -29 -29 -29 -29 -29 -28 -28 -27 -27 -27 -27 -27 -26 -26 -26 -25
-32 -32 -33 -33 -33 -33 -32 -32 -32 -32 -31 -31 -31 -30 -30 -30 -29 -29 -29 -30 -29 -29 -29 -30 -29 -29 -29 -28 -29 -29 -30 -30 -29 -29 -28 -27 -26 -27 -27 -27 -26 -26 -25 -25
-33 -33 -33 -33 -33 -33 -33 -32 -32 -32 -32 -31 -31 -31 -30 -30 -29 -29 -30 -30 -30 -29 -29 -30 -30 -30 -29 -29 -30 -30 -30 -30 -29 -29 -28 -28 -27 -27 -27 -26 -26 -26 -26 -26
-33 -33 -34 -33 -33 -33 -33 -33 -32 -32 -32 -32 -32 -31 -31 -30 -30 -30 -30 -30 -30 -31 -31 -30 -30 -31 -30 -30 -30 -30 -30 -30 -29 -28 -29 -28 -27 -27 -27 -26 -26 -26 -26 -26
-32 -33 -33 -33 -33 -33 -33 -33 -32 -32 -32 -31 -31 -31 -30 -30 -30 -30 -30 -31 -31 -31 -32 -32 -32 -31 -31 -31 -30 -30 -30 -30 -29 -28 -28 -27 -27 -27 -27 -27 -27 -26 -26 -26
-32 -32 -32 -32 -32 -32 -32 -32 -32 -32 -31 -31 -31 -30 -30 -30 -31 -31 -31 -31 -32 -31 -31 -31 -32 -32 -31 -31 -29 -30 -30 -30 -29 -29 -27 -27 -28 -27 -27 -27 -26 -26 -26 -26
-31 -31 -31 -31 -31 -31 -31 -31 -31 -31 -30 -30 -31 -31 -31 -31 -31 -31 -31 -31 -31 -32 -32 -31 -31 -31 -31 -29 -29 -30 -30 -30 -29 -28 -27 -27 -27 -27 -27 -27 -27 -26 -26 -25
-31 -31 -30 -31 -31 -31 -31 -30 -30 -30 -30 -30 -30 -30 -30 -30 -30 -31 -31 -31 -31 -31 -31 -31 -31 -30 -28 -29 -30 -30 -29 -29 -28 -28 -28 -27 -27 -27 -26 -26 -26 -26 -26 -25
-31 -30 -30 -30 -31 -31 -30 -30 -30 -30 -30 -30 -30 -30 -30 -30 -30 -30 -30 -30 -31 -31 -31 -31 -29 -29 -29 -29 -29 -28 -28 -28 -28 -28 -27 -27 -27 -26 -26 -26 -26 -26 -26 -25
-30 -30 -30 -30 -30 -30 -30 -30 -30 -30 -30 -30 -30 -30 -30 -30 -30 -30 -30 -31 -31 -30 -30 -29 -29 -29 -29 -28 -28 -28 -28 -28 -28 -27 -27 -27 -26 -26 -26 -26 -26 -26 -25 -25
-30 -30 -30 -30 -30 -30 -30 -29 -29 -29 -29 -30 -30 -30 -30 -30 -30 -30 -30 -30 -30 -29 -29 -29 -29 -28 -28 -28 -28 -28 -28 -27 -27 -27 -27 -26 -26 -26 -26 -26 -26 -25 -25 -25
-30 -30 -30 -30 -30 -29 -29 -29 -29 -29 -29 -30 -30 -30 -30 -30 -30 -30 -30 -30 -29 -29 -28 -28 -28 -29 -28 -28 -28 -27 -27 -27 -27 -27 -27 -27 -26 -26 -25 -25 -25 -25 -25 -25
-29 -29 -29 -29 -29 -29 -29 -29 -29 -29 -29 -30 -29 -29 -29 -29 -29 -29 -29 -29 -29 -28 -28 -28 -28 -28 -28 -27 -27 -27 -27 -26 -26 -27 -26 -26 -26 -25 -25 -25 -25 -25 -25 -26
-29 -29 -29 -29 -29 -29 -29 -29 -29 -29 -29 -29 -29 -29 -29 -29 -29 -29 -29 -29 -28 -28 -28 -28 -28 -28 -27 -27 -27 -26 -26 -26 -26 -25 -25 -25 -25 -25 -25 -25 -25 -25 -26 -26
-29 -29 -29 -29 -29 -29 -29 -29 -29 -29 -29 -29 -29 -29 -29 -29 -29 -29 -29 -28 -28 -28 -28 -28 -28 -27 -27 -26 -26 -26 -25 -25 -25 -25 -25 -25 -25 -25 -25 -26 -26 -26 -26 -26
-29 -29 -29 -29 -29 -28 -29 -29 -29 -29 -28 -29 -29 -29 -29 -28 -28 -28 -28 -28 -28 -28 -27 -27 -27 -27 -26 -26 -26 -25 -25 -25 -25 -25 -25 -25 -25 -25 -25 -26 -26 -26 -26 -26

GFSNW_500_temp_174.txt.gz
Temp
-25 -25 -25 -25 -25 -25 -25 -25 -25 -24 -25 -25 -25 -25 -24 -24 -24 -24 -23 -23 -23 -23 -23 -23 -24 -23 -23 -23 -23 -23 -22 -22 -21 -20 -20 -20 -20 -20 -20 -20 -19 -19 -19 -19
-26 -26 -26 -26 -26 -26 -26 -26 -26 -26 -26 -26 -26 -26 -26 -26 -25 -24 -24 -25 -24 -24 -24 -25 -24 -24 -24 -24 -24 -24 -23 -23 -22 -21 -21 -21 -20 -20 -20 -20 -20 -20 -19 -19
-27 -27 -27 -27 -27 -27 -27 -27 -27 -26 -27 -26 -26 -26 -26 -27 -26 -25 -26 -26 -26 -26 -25 -26 -25 -25 -25 -25 -24 -24 -24 -24 -23 -22 -22 -23 -22 -22 -22 -22 -21 -20 -19 -19
-27 -27 -27 -28 -28 -28 -28 -27 -27 -27 -27 -27 -27 -28 -27 -27 -26 -27 -26 -27 -26 -26 -26 -26 -26 -25 -25 -25 -25 -24 -25 -24 -24 -24 -23 -23 -23 -23 -22 -22 -22 -21 -20 -20
-28 -28 -29 -29 -29 -29 -29 -29 -28 -28 -28 -28 -28 -28 -28 -27 -27 -27 -27 -27 -27 -27 -27 -26 -27 -26 -26 -26 -26 -26 -25 -25 -25 -24 -24 -24 -24 -23 -23 -22 -23 -23 -23 -22
-29 -29 -29 -29 -29 -29 -29 -30 -30 -29 -29 -29 -29 -29 -29 -28 -28 -27 -27 -27 -27 -27 -27 -27 -27 -27 -26 -26 -26 -27 -26 -26 -26 -25 -25 -25 -24 -23 -24 -23 -23 -24 -24 -24
-30 -30 -30 -30 -30 -30 -30 -30 -30 -30 -29 -30 -29 -29 -29 -29 -28 -27 -27 -27 -27 -27 -27 -27 -27 -27 -27 -27 -27 -26 -27 -27 -27 -27 -26 -25 -24 -24 -24 -25 -25 -25 -24 -24
-30 -30 -30 -30 -30 -30 -30 -30 -30 -30 -30 -30 -30 -30 -30 -29 -29 -29 -28 -28 -27 -27 -27 -27 -27 -27 -27 -27 -27 -27 -27 -27 -27 -27 -27 -27 -25 -25 -25 -25 -25 -25 -25 -24
-30 -30 -31 -31 -31 -31 -30 -30 -30 -30 -30 -30 -30 -30 -30 -29 -29 -28 -28 -28 -28 -28 -28 -28 -27 -27 -27 -27 -27 -27 -27 -27 -27 -27 -27 -27 -25 -26 -26 -26 -26 -25 -26 -26
-31 -31 -31 -31 -31 -31 -31 -31 -31 -31 -30 -30 -30 -30 -30 -30 -29 -29 -28 -28 -28 -28 -28 -27 -28 -28 -28 -28 -28 -27 -27 -27 -28 -28 -28 -27 -27 -27 -27 -27 -27 -26 -26 -25
-31 -31 -31 -31 -31 -31 -31 -31 -31 -31 -31 -30 -30 -30 -30 -30 -29 -28 -28 -27 -27 -27 -27 -28 -28 -28 -28 -28 -27 -27 -28 -28 -29 -29 -28 -28 -27 -27 -27 -27 -27 -27 -26 -26
-31 -32 -32 -32 -32 -32 -31 -31 -31 -31 -31 -31 -31 -31 -31 -29 -29 -29 -28 -28 -28 -28 -28 -28 -28 -28 -28 -28 -28 -28 -28 -28 -29 -28 -28 -28 -27 -28 -28 -27 -27 -27 -27 -26
-32 -32 -32 -32 -33 -33 -32 -32 -32 -32 -32 -31 -31 -31 -31 -30 -30 -29 -29 -29 -29 -28 -29 -29 -29 -28 -28 -28 -28 -29 -29 -29 -28 -29 -29 -28 -28 -28 -28 -27 -27 -27 -27 -26
-32 -32 -33 -33 -33 -33 -33 -33 -32 -32 -32 -32 -31 -31 -31 -31 -30 -30 -30 -30 -29 -29 -29 -29 -29 -29 -29 -29 -29 -29 -29 -29 -29 -29 -29 -29 -29 -28 -27 -27 -27 -27 -27 -27
-32 -33 -34 -34 -33 -33 -33 -33 -33 -33 -32 -32 -32 -31 -31 -31 -30 -30 -30 -30 -30 -30 -30 -30 -30 -30 -29 -29 -29 -29 -29 -30 -29 -29 -29 -29 -29 -28 -27 -27 -27 -27 -26 -27
-32 -33 -33 -34 -34 -34 -33 -33 -33 -33 -32 -32 -32 -31 -31 -31 -31 -31 -31 -30 -30 -30 -30 -30 -30 -30 -30 -30 -30 -30 -30 -30 -30 -30 -30 -29 -29 -29 -28 -28 -27 -27 -26 -26
-32 -32 -32 -33 -33 -34 -33 -33 -33 -33 -32 -32 -32 -31 -31 -31 -31 -30 -30 -30 -30 -30 -30 -31 -31 -31 -31 -31 -30 -31 -31 -31 -31 -31 -30 -29 -28 -28 -28 -28 -27 -26 -26 -26
-31 -31 -31 -32 -32 -32 -32 -32 -32 -32 -31 -31 -31 -31 -31 -31 -31 -30 -30 -31 -31 -31 -31 -31 -32 -31 -30 -29 -30 -31 -31 -31 -31 -31 -30 -29 -28 -28 -28 -27 -26 -26 -27 -26
-31 -31 -31 -31 -31 -31 -31 -31 -30 -30 -30 -30 -30 -31 -31 -31 -30 -30 -31 -31 -31 -31 -31 -32 -31 -30 -29 -30 -30 -31 -31 -31 -30 -29 -29 -29 -28 -27 -27 -27 -27 -27 -27 -26
-30 -31 -31 -31 -31 -31 -31 -30 -30 -30 -30 -31 -31 -30 -31 -30 -30 -31 -30 -31 -31 -31 -31 -31 -30 -30 -30 -29 -29 -30 -30 -29 -29 -29 -28 -28 -27 -27 -27 -27 -26 -26 -26 -26
-30 -30 -30 -31 -31 -31 -30 -30 -30 -30 -30 -30 -30 -30 -30 -30 -30 -30 -30 -30 -30 -30 -30 -30 -30 -29 -29 -29 -29 -29 -28 -28 -28 -28 -27 -27 -27 -27 -27 -27 -26 -26 -26 -26
-31 -31 -30 -30 -30 -30 -30 -30 -30 -30 -30 -30 -30 -30 -30 -30 -30 -30 -30 -30 -30 -29 -29 -29 -29 -29 -28 -28 -28 -28 -28 -28 -28 -28 -28 -27 -27 -27 -26 -26 -26 -26 -26 -26
-30 -30 -30 -30 -30 -30 -30 -29 -29 -30 -30 -30 -30 -30 -30 -30 -30 -30 -30 -30 -30 -29 -29 -29 -29 -28 -28 -28 -28 -28 -28 -28 -28 -27 -27 -27 -27 -26 -26 -26 -26 -26 -26 -26
-30 -30 -30 -30 -29 -29 -29 -29 -29 -29 -29 -29 -29 -30 -30 -30 -30 -29 -29 -29 -29 -29 -29 -29 -28 -28 -28 -28 -28 -28 -28 -27 -27 -27 -27 -27 -26 -26 -26 -26 -26 -26 -26 -26
-30 -30 -29 -29 -29 -29 -29 -29 -29 -29 -29 -29 -29 -29 -29 -29 -29 -29 -29 -29 -29 -28 -28 -28 -28 -28 -28 -27 -27 -27 -27 -27 -27 -27 -26 -26 -26 -26 -26 -25 -25 -25 -26 -26
-30 -30 -29 -29 -29 -29 -29 -29 -29 -29 -29 -29 -29 -29 -29 -29 -29 -29 -29 -28 -29 -28 -28 -28 -28 -28 -28 -27 -27 -27 -26 -26 -26 -26 -26 -25 -25 -25 -25 -25 -25 -26 -26 -26
-29 -29 -29 -29 -29 -29 -29 -29 -29 -29 -29 -29 -29 -29 -29 -29 -28 -28 -29 -28 -28 -28 -28 -28 -28 -28 -28 -27 -27 -26 -26 -26 -26 -25 -25 -25 -25 -25 -25 -25 -26 -26 -26 -26

GFSNW_500_temp_180.txt.gz
Temp
-21 -21 -21 -21 -21 -21 -21 -22 -22 -22 -23 -24 -24 -24 -24 -25 -24 -25 -25 -25 -25 -25 -25 -24 -24 -24 -24 -23 -24 -23 -23 -23 -22 -22 -22 -22 -22 -21 -21 -21 -21 -20 -20 -21
-23 -23 -23 -23 -23 -23 -23 -24 -24 -25 -25 -25 -26 -26 -26 -26 -26 -26 -26 -26 -26 -25 -25 -26 -25 -25 -24 -25 -25 -24 -24 -24 -23 -23 -23 -22 -22 -23 -22 -21 -21 -21 -21 -21
-23 -24 -24 -24 -24 -25 -25 -26 -26 -26 -26 -26 -26 -27 -27 -27 -27 -27 -27 -27 -27 -26 -26 -26 -26 -25 -25 -25 -25 -25 -25 -25 -25 -24 -24 -24 -24 -23 -24 -24 -24 -24 -23 -22
-24 -25 -26 -26 -26 -26 -26 -27 -27 -27 -27 -27 -28 -28 -28 -28 -28 -28 -27 -27 -27 -27 -27 -26 -27 -26 -26 -26 -26 -26 -26 -26 -25 -25 -25 -25 -24 -25 -25 -25 -24 -24 -23 -23
-26 -26 -26 -26 -26 -27 -26 -27 -27 -28 -28 -28 -28 -28 -28 -28 -28 -29 -28 -28 -28 -28 -28 -27 -27 -27 -27 -26 -26 -27 -26 -26 -26 -26 -25 -25 -25 -25 -25 -25 -25 -25 -25 -24
-27 -27 -27 -27 -28 -28 -28 -28 -29 -29 -28 -29 -29 -29 -30 -29 -30 -29 -29 -29 -29 -28 -28 -28 -27 -27 -27 -27 -27 -26 -26 -26 -26 -26 -26 -26 -26 -25 -25 -25 -26 -26 -25 -25
-28 -28 -28 -28 -29 -29 -29 -29 -29 -29 -29 -29 -30 -30 -30 -30 -30 -29 -29 -30 -29 -28 -29 -28 -27 -27 -27 -27 -27 -26 -26 -27 -27 -27 -26 -26 -26 -26 -26 -26 -26 -26 -26 -26
-28 -29 -29 -29 -29 -29 -30 -30 -30 -30 -29 -30 -30 -30 -30 -30 -30 -30 -30 -30 -30 -30 -30 -29 -28 -28 -27 -27 -27 -27 -27 -27 -27 -27 -27 -27 -26 -26 -26 -26 -27 -27 -27 -27
-29 -29 -29 -29 -30 -30 -30 -30 -30 -30 -30 -30 -30 -30 -30 -30 -30 -30 -30 -30 -30 -30 -30 -30 -30 -29 -28 -28 -27 -27 -27 -27 -27 -28 -27 -27 -27 -27 -27 -27 -27 -27 -27 -27
-30 -30 -30 -30 -30 -30 -30 -31 -30 -30 -30 -31 -31 -31 -31 -31 -30 -30 -30 -30 -30 -30 -30 -29 -29 -29 -29 -28 -28 -27 -27 -27 -27 -27 -27 -27 -27 -27 -27 -27 -27 -27 -26 -26
-30 -30 -31 -31 -31 -31 -30 -31 -31 -31 -31 -31 -31 -31 -31 -31 -30 -30 -30 -30 -30 -30 -29 -29 -29 -29 -29 -28 -28 -28 -27 -28 -28 -28 -28 -27 -27 -27 -27 -27 -27 -27 -28 -28
-30 -31 -31 -31 -31 -31 -31 -32 -32 -31 -31 -31 -32 -31 -31 -31 -31 -30 -31 -30 -30 -30 -29 -29 -29 -28 -28 -28 -28 -28 -28 -28 -28 -28 -28 -28 -28 -28 -28 -27 -27 -28 -28 -28
-31 -31 -31 -31 -31 -32 -32 -32 -32 -32 -32 -31 -32 -32 -31 -31 -31 -31 -31 -31 -30 -30 -30 -29 -29 -29 -28 -28 -28 -28 -28 -28 -28 -28 -28 -28 -28 -28 -28 -28 -28 -28 -28 -29
-31 -31 -31 -32 -32 -32 -33 -33 -33 -33 -33 -33 -33 -32 -32 -32 -31 -31 -31 -31 -31 -30 -30 -30 -29 -29 -29 -29 -29 -28 -28 -28 -28 -28 -28 -28 -28 -28 -28 -28 -28 -28 -28 -28
-31 -32 -32 -32 -33 -33 -33 -34 -34 -33 -33 -33 -33 -33 -32 -32 -32 -32 -32 -31 -31 -31 -30 -30 -30 -30 -30 -29 -29 -29 -29 -29 -29 -29 -29 -29 -29 -29 -29 -29 -29 -29 -28 -29
-32 -32 -32 -33 -33 -34 -34 -34 -34 -34 -33 -33 -33 -33 -32 -32 -32 -32 -31 -31 -31 -31 -31 -30 -30 -30 -30 -29 -29 -29 -29 -29 -29 -29 -29 -29 -29 -29 -29 -29 -29 -29 -29 -29
-32 -32 -32 -32 -33 -33 -34 -34 -34 -34 -33 -33 -33 -33 -32 -32 -32 -31 -31 -31 -31 -31 -30 -30 -30 -30 -30 -29 -28 -29 -29 -28 -28 -28 -28 -28 -28 -28 -29 -30 -30 -29 -29 -28
-32 -32 -32 -32 -32 -32 -33 -33 -33 -33 -33 -33 -32 -32 -32 -32 -32 -32 -31 -31 -31 -31 -31 -31 -31 -31 -30 -29 -28 -28 -28 -28 -28 -28 -29 -29 -29 -29 -29 -31 -31 -30 -29 -28
-31 -31 -31 -31 -31 -31 -31 -31 -31 -31 -31 -31 -31 -31 -31 -31 -31 -31 -31 -31 -31 -31 -31 -31 -31 -31 -30 -30 -30 -30 -30 -29 -29 -30 -30 -30 -30 -30 -31 -31 -31 -29 -29 -28
-31 -31 -31 -31 -31 -31 -31 -31 -31 -31 -31 -31 -31 -31 -31 -31 -31 -31 -31 -31 -31 -30 -30 -31 -30 -30 -29 -29 -30 -30 -30 -29 -30 -30 -30 -30 -29 -29 -30 -29 -29 -29 -28 -28
-31 -31 -31 -31 -31 -31 -31 -31 -31 -31 -31 -31 -31 -31 -31 -31 -31 -31 -30 -30 -30 -30 -30 -30 -29 -29 -29 -29 -29 -29 -29 -29 -29 -29 -30 -30 -29 -29 -29 -29 -28 -28 -28 -27
-31 -31 -31 -31 -31 -30 -31 -31 -31 -31 -31 -31 -30 -30 -30 -31 -30 -30 -30 -30 -30 -30 -30 -29 -29 -29 -29 -29 -29 -28 -28 -28 -28 -28 -29 -28 -28 -28 -28 -28 -28 -27 -27 -27
-30 -31 -30 -30 -30 -30 -30 -30 -30 -30 -30 -30 -30 -30 -30 -30 -30 -30 -30 -30 -30 -29 -29 -29 -29 -29 -29 -29 -28 -28 -28 -28 -28 -28 -28 -28 -28 -28 -28 -27 -27 -27 -27 -27
-30 -30 -30 -30 -30 -30 -30 -30 -30 -30 -30 -30 -30 -30 -30 -30 -30 -30 -29 -29 -29 -29 -29 -29 -29 -29 -28 -28 -28 -28 -28 -28 -28 -28 -28 -28 -27 -27 -27 -27 -27 -27 -27 -27
-30 -30 -30 -30 -30 -30 -30 -30 -30 -29 -30 -29 -29 -29 -30 -29 -30 -29 -29 -29 -29 -29 -29 -29 -29 -29 -28 -28 -28 -28 -28 -28 -27 -28 -28 -28 -27 -27 -27 -27 -26 -26 -26 -26
-30 -29 -30 -30 -30 -30 -30 -30 -30 -30 -29 -29 -29 -29 -29 -29 -29 -29 -29 -29 -29 -29 -29 -29 -28 -28 -28 -28 -28 -28 -27 -27 -27 -27 -27 -27 -27 -27 -27 -26 -26 -26 -26 -26
-29 -29 -30 -30 -30 -30 -30 -30 -30 -30 -29 -30 -30 -29 -30 -29 -29 -29 -29 -29 -29 -29 -28 -28 -28 -28 -28 -28 -28 -28 -27 -27 -27 -27 -27 -26 -26 -26 -26 -26 -26 -26 -26 -26

GFSNW_500_temp_183.txt.gz
Temp
-21 -21 -21 -21 -21 -21 -21 -21 -21 -21 -21 -21 -21 -20 -21 -21 -21 -22 -22 -22 -22 -23 -24 -24 -24 -24 -23 -23 -23 -23 -23 -24 -23 -22 -22 -22 -22 -22 -22 -22 -21 -21 -21 -21
-21 -22 -22 -22 -22 -22 -22 -21 -21 -21 -21 -21 -22 -22 -22 -23 -23 -24 -25 -25 -25 -25 -26 -26 -26 -25 -25 -25 -25 -26 -25 -25 -24 -23 -23 -23 -23 -22 -22 -22 -22 -22 -22 -22
-23 -23 -23 -23 -23 -23 -23 -23 -22 -23 -23 -23 -24 -25 -25 -25 -26 -26 -26 -26 -26 -26 -26 -27 -27 -26 -26 -26 -26 -26 -26 -26 -26 -25 -24 -24 -24 -23 -23 -23 -23 -23 -23 -23
-23 -24 -24 -24 -23 -24 -24 -24 -24 -24 -25 -25 -26 -26 -26 -26 -27 -27 -28 -27 -28 -28 -28 -28 -28 -28 -27 -27 -27 -26 -28 -26 -26 -26 -25 -25 -25 -25 -25 -25 -24 -24 -24 -23
-24 -25 -25 -25 -24 -25 -25 -26 -26 -26 -26 -26 -27 -27 -27 -28 -28 -29 -28 -29 -28 -29 -28 -29 -28 -28 -28 -27 -27 -27 -27 -27 -27 -27 -26 -26 -26 -26 -25 -25 -25 -25 -24 -24
-26 -26 -26 -26 -26 -26 -27 -27 -26 -27 -27 -27 -28 -28 -28 -28 -29 -29 -29 -29 -29 -29 -29 -30 -29 -29 -28 -28 -27 -27 -27 -27 -27 -27 -27 -27 -27 -25 -26 -26 -26 -26 -26 -25
-26 -26 -27 -27 -27 -27 -27 -28 -28 -28 -28 -28 -29 -29 -29 -29 -29 -29 -30 -30 -30 -30 -30 -29 -29 -29 -28 -28 -27 -28 -27 -27 -27 -27 -27 -27 -26 -26 -26 -26 -26 -26 -26 -26
-27 -27 -27 -28 -28 -28 -28 -28 -29 -29 -29 -29 -30 -30 -30 -30 -30 -30 -30 -30 -30 -30 -30 -30 -29 -28 -29 -28 -28 -28 -28 -27 -27 -27 -27 -27 -26 -26 -26 -27 -26 -26 -27 -27
-28 -28 -28 -29 -29 -29 -29 -29 -29 -29 -29 -30 -30 -30 -30 -30 -30 -30 -30 -30 -30 -30 -30 -30 -29 -29 -29 -28 -28 -28 -28 -28 -28 -27 -28 -27 -26 -26 -27 -27 -27 -27 -27 -27
-29 -29 -29 -29 -29 -29 -29 -30 -30 -30 -29 -30 -30 -31 -30 -31 -30 -30 -30 -31 -30 -30 -30 -30 -29 -29 -30 -29 -29 -29 -29 -28 -28 -27 -28 -27 -27 -27 -27 -27 -27 -27 -27 -27
-29 -29 -29 -29 -30 -30 -30 -31 -30 -30 -30 -30 -31 -31 -31 -31 -31 -31 -31 -30 -31 -30 -30 -30 -30 -29 -29 -29 -29 -29 -29 -28 -28 -28 -28 -27 -27 -28 -27 -28 -27 -27 -27 -27
-29 -29 -29 -30 -30 -30 -30 -31 -31 -30 -30 -31 -31 -31 -31 -31 -31 -31 -31 -31 -31 -30 -30 -30 -30 -30 -30 -29 -29 -29 -29 -29 -28 -28 -28 -28 -28 -28 -27 -28 -27 -28 -27 -27
-30 -30 -30 -30 -31 -31 -31 -31 -32 -32 -31 -31 -32 -32 -32 -32 -31 -31 -31 -31 -31 -31 -31 -31 -30 -30 -30 -30 -29 -29 -29 -29 -29 -28 -28 -28 -28 -28 -28 -28 -28 -28 -28 -28
-30 -30 -31 -31 -31 -32 -32 -32 -32 -32 -32 -32 -33 -33 -33 -32 -32 -31 -31 -31 -31 -31 -31 -31 -30 -30 -30 -30 -30 -29 -29 -29 -29 -29 -28 -28 -28 -28 -28 -28 -28 -28 -28 -28
-31 -31 -31 -32 -32 -32 -33 -33 -33 -33 -33 -34 -33 -33 -33 -32 -32 -32 -32 -32 -32 -31 -31 -31 -31 -31 -30 -30 -29 -29 -29 -29 -29 -29 -29 -29 -28 -28 -29 -28 -28 -29 -29 -29
-32 -32 -32 -32 -32 -33 -33 -33 -34 -34 -34 -34 -33 -33 -33 -32 -32 -32 -32 -32 -32 -31 -31 -31 -31 -31 -30 -30 -29 -29 -30 -30 -29 -29 -29 -29 -28 -28 -28 -28 -29 -29 -29 -29
-32 -32 -32 -32 -32 -33 -33 -34 -34 -34 -34 -33 -33 -33 -33 -33 -32 -32 -32 -32 -32 -31 -31 -31 -30 -31 -31 -29 -29 -30 -29 -28 -28 -28 -28 -28 -28 -28 -28 -28 -28 -28 -28 -29
-32 -31 -31 -31 -32 -32 -32 -32 -32 -32 -32 -32 -32 -31 -32 -32 -32 -32 -32 -31 -31 -31 -31 -31 -31 -30 -30 -29 -30 -29 -29 -28 -28 -28 -28 -28 -29 -30 -30 -30 -30 -30 -30 -30
-31 -31 -31 -31 -31 -31 -31 -32 -32 -31 -31 -31 -31 -31 -31 -31 -31 -31 -31 -31 -31 -31 -31 -30 -30 -30 -30 -30 -30 -30 -30 -30 -30 -30 -30 -30 -30 -30 -30 -30 -29 -29 -30 -30
-31 -31 -31 -31 -31 -31 -31 -31 -31 -31 -31 -31 -31 -31 -31 -31 -31 -31 -31 -31 -31 -30 -30 -30 -30 -30 -30 -29 -29 -29 -29 -30 -30 -30 -30 -30 -30 -30 -30 -30 -30 -30 -29 -29
-31 -31 -31 -31 -31 -31 -31 -31 -31 -31 -31 -31 -31 -31 -31 -31 -31 -31 -30 -30 -30 -30 -30 -30 -29 -29 -29 -29 -29 -29 -29 -29 -29 -29 -29 -29 -29 -29 -29 -29 -29 -29 -29 -29
-31 -31 -31 -31 -31 -31 -31 -31 -31 -31 -30 -30 -30 -30 -30 -30 -30 -30 -30 -30 -30 -30 -29 -29 -29 -29 -29 -29 -28 -29 -29 -28 -29 -29 -29 -29 -29 -28 -28 -28 -28 -28 -28 -28
-31 -30 -30 -30 -30 -30 -30 -30 -30 -30 -30 -30 -30 -30 -30 -30 -30 -30 -30 -30 -30 -29 -29 -29 -29 -29 -29 -29 -29 -28 -28 -28 -28 -28 -28 -28 -28 -28 -28 -28 -28 -28 -28 -28
-30 -30 -30 -30 -30 -30 -30 -30 -30 -30 -30 -30 -30 -30 -30 -30 -30 -30 -29 -30 -29 -29 -29 -29 -29 -29 -28 -28 -28 -28 -28 -28 -28 -28 -28 -28 -28 -28 -28 -27 -27 -27 -27 -27
-30 -30 -30 -30 -31 -30 -30 -30 -30 -30 -30 -30 -30 -30 -30 -29 -30 -29 -29 -29 -29 -29 -29 -29 -29 -29 -28 -28 -28 -28 -28 -28 -28 -28 -28 -28 -28 -28 -28 -27 -27 -27 -27 -27
-29 -29 -30 -30 -30 -30 -30 -30 -30 -30 -30 -30 -30 -30 -29 -29 -29 -29 -29 -29 -29 -29 -29 -28 -29 -28 -28 -28 -28 -28 -28 -27 -27 -28 -27 -27 -27 -27 -27 -27 -27 -26 -26 -26
-30 -30 -30 -30 -30 -30 -30 -30 -30 -30 -30 -30 -30 -30 -30 -30 -29 -29 -29 -29 -29 -29 -29 -28 -28 -28 -28 -28 -28 -28 -28 -27 -27 -27 -27 -27 -27 -27 -27 -26 -26 -26 -26 -26

GFSNW_500_temp_186.txt.gz
Temp
-18 -18 -18 -18 -18 -19 -19 -19 -19 -20 -20 -20 -20 -20 -20 -20 -20 -20 -20 -20 -20 -20 -20 -20 -20 -20 -20 -21 -23 -24 -24 -24 -23 -23 -23 -23 -22 -21 -21 -21 -21 -21 -21 -21
-19 -19 -19 -20 -19 -20 -20 -20 -20 -21 -21 -21 -21 -21 -21 -21 -21 -21 -21 -21 -21 -21 -22 -22 -22 -22 -23 -24 -24 -26 -26 -27 -27 -24 -23 -23 -23 -22 -22 -22 -22 -21 -22 -22
-19 -20 -20 -21 -20 -21 -21 -21 -21 -22 -22 -22 -22 -22 -22 -22 -22 -23 -23 -22 -23 -24 -24 -25 -25 -25 -26 -26 -26 -26 -27 -26 -27 -27 -26 -26 -25 -24 -23 -23 -23 -23 -22 -22
-20 -21 -22 -21 -22 -22 -23 -23 -23 -23 -23 -23 -23 -23 -23 -24 -24 -24 -25 -25 -26 -26 -26 -26 -26 -27 -27 -27 -27 -27 -27 -27 -27 -26 -26 -26 -26 -26 -25 -24 -23 -24 -23 -23
-22 -22 -22 -23 -23 -23 -23 -24 -24 -24 -24 -24 -24 -25 -25 -26 -26 -26 -26 -26 -27 -27 -27 -28 -27 -28 -28 -27 -27 -28 -28 -27 -27 -27 -26 -27 -26 -26 -26 -25 -25 -25 -25 -24
-24 -24 -24 -24 -24 -24 -25 -25 -25 -25 -25 -25 -26 -26 -26 -26 -27 -27 -27 -28 -28 -29 -29 -28 -28 -28 -28 -29 -28 -28 -28 -27 -27 -27 -27 -27 -27 -26 -26 -26 -26 -26 -25 -25
-25 -25 -25 -25 -25 -25 -25 -25 -26 -26 -26 -27 -27 -27 -28 -28 -28 -28 -28 -29 -29 -30 -29 -29 -29 -29 -29 -29 -29 -29 -28 -28 -27 -27 -27 -27 -26 -26 -26 -26 -26 -26 -26 -26
-26 -26 -26 -26 -26 -26 -26 -27 -27 -27 -28 -28 -28 -29 -29 -29 -29 -29 -29 -30 -29 -29 -29 -29 -29 -29 -29 -29 -29 -29 -29 -28 -28 -28 -28 -27 -27 -26 -26 -27 -27 -27 -27 -26
-27 -27 -27 -27 -27 -27 -28 -28 -28 -29 -29 -29 -29 -30 -30 -29 -29 -29 -29 -30 -30 -30 -30 -30 -29 -29 -30 -29 -29 -29 -29 -28 -28 -28 -27 -27 -27 -28 -27 -27 -26 -27 -27 -27
-27 -27 -28 -28 -28 -28 -29 -29 -29 -29 -29 -30 -30 -30 -30 -30 -29 -29 -30 -30 -30 -30 -30 -30 -30 -30 -30 -29 -29 -29 -29 -29 -28 -28 -28 -27 -28 -27 -27 -27 -27 -27 -27 -27
-28 -28 -28 -28 -29 -29 -29 -29 -29 -29 -29 -30 -30 -30 -30 -30 -30 -30 -30 -30 -31 -31 -31 -30 -30 -30 -30 -29 -29 -29 -29 -29 -29 -28 -28 -28 -27 -27 -27 -27 -27 -27 -27 -27
-28 -28 -29 -29 -29 -29 -29 -29 -29 -29 -30 -30 -31 -31 -31 -31 -31 -31 -31 -31 -31 -31 -31 -31 -30 -30 -30 -30 -29 -29 -29 -29 -29 -29 -28 -28 -27 -27 -27 -27 -27 -27 -28 -28
-29 -29 -29 -29 -29 -29 -30 -30 -30 -30 -30 -31 -31 -32 -31 -31 -32 -31 -31 -31 -31 -31 -31 -31 -31 -30 -30 -30 -30 -30 -29 -29 -29 -29 -28 -28 -28 -28 -28 -28 -28 -28 -28 -28
-29 -29 -30 -30 -30 -30 -30 -31 -31 -31 -31 -31 -32 -32 -32 -32 -32 -32 -32 -32 -31 -31 -31 -31 -31 -31 -31 -30 -30 -30 -29 -29 -29 -28 -29 -29 -29 -28 -28 -28 -28 -28 -28 -28
-30 -30 -30 -31 -31 -31 -31 -31 -32 -32 -32 -32 -33 -33 -33 -33 -33 -32 -32 -32 -32 -31 -31 -31 -31 -31 -31 -30 -30 -30 -30 -30 -29 -29 -29 -28 -28 -29 -28 -28 -28 -28 -28 -28
-31 -31 -31 -31 -31 -31 -32 -32 -33 -33 -33 -33 -33 -33 -33 -33 -33 -32 -32 -32 -32 -32 -32 -32 -31 -31 -31 -31 -30 -30 -30 -30 -29 -29 -29 -29 -29 -28 -28 -28 -28 -28 -28 -28
-31 -31 -31 -31 -32 -32 -32 -32 -32 -32 -33 -33 -33 -33 -33 -32 -32 -32 -32 -32 -32 -32 -31 -31 -31 -31 -31 -30 -30 -30 -30 -29 -29 -29 -29 -28 -28 -28 -28 -28 -28 -28 -28 -28
-31 -31 -31 -31 -31 -31 -31 -31 -31 -31 -31 -31 -31 -31 -31 -32 -32 -32 -31 -31 -31 -31 -31 -31 -31 -31 -31 -30 -31 -30 -30 -29 -29 -29 -29 -28 -28 -28 -28 -28 -29 -29 -29 -29
-31 -31 -31 -31 -31 -31 -31 -31 -31 -31 -31 -31 -31 -31 -31 -31 -31 -31 -31 -31 -31 -31 -31 -31 -30 -30 -30 -30 -29 -29 -29 -29 -30 -30 -29 -29 -29 -30 -30 -30 -30 -29 -30 -30
-31 -31 -31 -31 -31 -31 -31 -31 -31 -31 -31 -31 -31 -31 -31 -31 -31 -31 -31 -31 -31 -30 -30 -30 -29 -29 -29 -29 -29 -29 -29 -29 -29 -29 -29 -30 -30 -30 -30 -30 -30 -30 -30 -30
-31 -31 -31 -31 -31 -30 -30 -31 -31 -30 -30 -30 -30 -30 -30 -31 -31 -30 -30 -30 -30 -30 -30 -30 -29 -29 -29 -29 -29 -29 -29 -29 -29 -29 -29 -29 -29 -29 -30 -30 -30 -30 -29 -29
-31 -31 -31 -31 -31 -31 -31 -30 -30 -30 -30 -30 -30 -30 -30 -30 -30 -30 -30 -30 -30 -30 -29 -29 -29 -29 -29 -29 -29 -28 -29 -28 -29 -28 -28 -28 -29 -28 -28 -29 -29 -28 -29 -29
-31 -31 -31 -30 -30 -30 -30 -30 -30 -30 -30 -30 -30 -30 -30 -30 -30 -30 -30 -30 -30 -29 -29 -29 -29 -29 -29 -29 -28 -28 -28 -28 -28 -28 -28 -28 -28 -28 -28 -28 -28 -28 -28 -28
-31 -31 -31 -30 -30 -30 -30 -30 -30 -30 -30 -30 -30 -30 -30 -30 -30 -30 -30 -30 -30 -30 -29 -29 -29 -29 -29 -29 -28 -28 -28 -28 -28 -28 -28 -28 -28 -28 -28 -28 -27 -27 -28 -27
-30 -30 -30 -31 -30 -30 -30 -30 -30 -30 -30 -30 -30 -30 -30 -30 -30 -30 -29 -30 -30 -29 -29 -29 -29 -29 -29 -28 -28 -28 -28 -28 -28 -28 -28 -28 -28 -27 -27 -27 -27 -27 -27 -27
-30 -30 -30 -31 -31 -30 -30 -30 -30 -30 -30 -30 -30 -30 -30 -30 -30 -30 -30 -29 -29 -29 -29 -29 -29 -28 -28 -28 -28 -28 -28 -28 -28 -27 -28 -28 -28 -28 -28 -27 -27 -27 -27 -27
-30 -30 -31 -31 -30 -30 -30 -30 -30 -30 -30 -30 -30 -30 -30 -30 -30 -30 -30 -29 -29 -29 -29 -29 -29 -29 -28 -28 -28 -28 -28 -28 -28 -28 -27 -27 -27 -27 -27 -27 -27 -26 -26 -26

GFSNW_500_temp_192.txt.gz
Temp
-15 -16 -15 -16 -15 -14 -15 -16 -16 -16 -17 -17 -17 -17 -17 -17 -16 -17 -17 -17 -17 -18 -19 -19 -20 -19 -19 -18 -18 -18 -19 -18 -17 -17 -18 -18 -18 -19 -20 -22 -21 -22 -22 -22
-16 -16 -16 -16 -16 -16 -15 -16 -17 -17 -17 -17 -17 -17 -17 -17 -17 -17 -18 -18 -19 -19 -19 -20 -20 -19 -20 -19 -19 -19 -19 -20 -20 -18 -19 -19 -20 -20 -21 -23 -24 -25 -24 -23
-17 -17 -17 -17 -16 -17 -17 -17 -17 -17 -17 -17 -17 -17 -17 -18 -18 -19 -19 -20 -20 -20 -21 -21 -20 -20 -20 -21 -21 -21 -20 -20 -21 -21 -21 -21 -22 -23 -23 -24 -25 -25 -25 -25
-18 -17 -17 -17 -17 -17 -17 -17 -17 -17 -17 -18 -18 -18 -19 -19 -19 -20 -20 -20 -21 -21 -21 -21 -20 -21 -21 -21 -21 -21 -22 -22 -23 -23 -23 -24 -24 -22 -23 -26 -26 -26 -25 -25
-18 -18 -18 -18 -18 -17 -18 -18 -18 -18 -19 -19 -19 -19 -20 -21 -21 -21 -21 -21 -22 -22 -22 -22 -22 -22 -22 -22 -22 -23 -24 -24 -25 -24 -25 -26 -26 -25 -28 -27 -26 -26 -26 -26
-20 -20 -20 -19 -19 -19 -19 -20 -20 -20 -20 -20 -21 -21 -21 -22 -22 -22 -22 -23 -23 -23 -23 -23 -22 -23 -23 -23 -23 -24 -26 -26 -26 -26 -26 -27 -25 -25 -27 -27 -26 -26 -26 -26
-22 -22 -21 -21 -21 -20 -20 -20 -21 -21 -21 -21 -22 -22 -22 -23 -24 -24 -24 -24 -24 -24 -24 -24 -23 -24 -24 -25 -25 -26 -26 -27 -27 -27 -27 -27 -24 -27 -28 -27 -26 -26 -26 -26
-23 -23 -22 -22 -22 -22 -22 -22 -22 -22 -22 -23 -23 -24 -25 -25 -25 -25 -25 -25 -25 -25 -25 -25 -25 -26 -26 -27 -27 -27 -27 -27 -27 -28 -28 -27 -25 -27 -27 -27 -26 -26 -26 -26
-23 -23 -23 -23 -23 -23 -23 -23 -24 -24 -25 -25 -25 -25 -25 -25 -26 -25 -26 -26 -26 -27 -27 -27 -27 -27 -27 -27 -27 -27 -28 -29 -28 -28 -28 -28 -27 -27 -28 -28 -26 -27 -27 -26
-25 -25 -25 -25 -25 -25 -25 -25 -26 -26 -26 -26 -26 -26 -26 -26 -26 -26 -27 -27 -27 -27 -28 -28 -27 -27 -28 -28 -28 -28 -28 -28 -28 -28 -28 -28 -27 -28 -28 -28 -27 -27 -26 -26
-26 -26 -26 -25 -25 -26 -27 -27 -26 -26 -27 -27 -26 -26 -26 -27 -27 -28 -28 -28 -28 -28 -28 -28 -29 -29 -28 -29 -29 -29 -29 -29 -29 -28 -28 -27 -28 -27 -28 -28 -27 -26 -27 -27
-26 -27 -27 -27 -27 -27 -27 -27 -27 -27 -27 -27 -27 -28 -28 -28 -28 -28 -28 -29 -29 -29 -30 -30 -30 -29 -29 -29 -29 -29 -29 -29 -29 -29 -28 -28 -28 -28 -28 -28 -27 -27 -27 -27
-28 -28 -28 -28 -28 -28 -28 -27 -28 -28 -28 -28 -28 -28 -29 -29 -29 -29 -30 -30 -30 -30 -30 -30 -30 -30 -30 -29 -29 -29 -29 -29 -28 -29 -29 -29 -29 -28 -28 -28 -27 -27 -27 -27
-29 -28 -28 -28 -28 -28 -28 -28 -28 -29 -29 -29 -29 -29 -29 -30 -30 -30 -31 -31 -31 -31 -31 -31 -31 -31 -31 -31 -30 -30 -30 -30 -30 -29 -29 -30 -29 -29 -29 -28 -28 -27 -27 -27
-29 -29 -29 -29 -29 -29 -29 -29 -29 -29 -29 -30 -30 -31 -31 -31 -31 -32 -32 -32 -32 -32 -32 -32 -32 -31 -31 -31 -30 -30 -30 -30 -30 -30 -30 -30 -29 -29 -29 -29 -29 -28 -28 -28
-29 -29 -29 -29 -29 -29 -29 -30 -30 -30 -30 -30 -31 -31 -31 -31 -32 -32 -32 -32 -32 -32 -32 -32 -32 -31 -31 -30 -30 -30 -30 -30 -30 -30 -30 -29 -29 -29 -29 -29 -29 -29 -28 -28
-30 -30 -30 -30 -30 -30 -30 -30 -30 -30 -30 -30 -30 -31 -31 -31 -31 -32 -32 -32 -32 -32 -31 -31 -31 -31 -31 -31 -30 -31 -31 -30 -30 -30 -30 -30 -30 -29 -29 -29 -29 -28 -28 -28
-30 -30 -30 -30 -30 -30 -30 -30 -30 -30 -30 -30 -30 -30 -30 -31 -31 -31 -31 -31 -31 -31 -31 -31 -31 -31 -31 -30 -30 -30 -30 -30 -30 -30 -30 -30 -29 -29 -29 -29 -29 -28 -28 -28
-30 -30 -30 -30 -31 -30 -30 -31 -30 -30 -30 -30 -30 -30 -31 -31 -31 -31 -31 -31 -31 -31 -30 -30 -30 -30 -29 -29 -29 -29 -29 -29 -29 -29 -29 -29 -29 -29 -29 -29 -30 -30 -29 -29
-31 -30 -30 -30 -30 -30 -30 -30 -30 -30 -30 -30 -30 -30 -30 -31 -31 -31 -31 -30 -30 -30 -30 -30 -29 -29 -29 -29 -29 -29 -29 -28 -28 -28 -28 -29 -28 -29 -29 -29 -29 -30 -30 -30
-31 -31 -31 -30 -30 -30 -30 -30 -30 -30 -30 -30 -30 -30 -30 -30 -30 -30 -31 -30 -30 -30 -30 -29 -29 -29 -29 -29 -29 -29 -29 -28 -28 -28 -28 -28 -29 -29 -29 -29 -29 -29 -29 -29
-31 -31 -30 -30 -30 -30 -30 -30 -30 -30 -30 -30 -30 -30 -30 -30 -30 -30 -30 -30 -30 -30 -29 -29 -29 -29 -28 -29 -29 -29 -28 -28 -28 -28 -28 -28 -28 -28 -28 -29 -29 -28 -29 -28
-31 -31 -30 -30 -30 -30 -30 -30 -31 -30 -30 -30 -30 -30 -30 -30 -30 -30 -30 -30 -30 -29 -29 -29 -29 -29 -29 -29 -28 -28 -28 -28 -28 -28 -28 -28 -28 -28 -28 -28 -28 -28 -28 -28
-31 -31 -30 -30 -30 -30 -30 -30 -30 -30 -30 -30 -30 -30 -30 -30 -30 -30 -30 -29 -29 -29 -29 -29 -29 -28 -29 -29 -29 -28 -28 -28 -28 -28 -28 -28 -28 -28 -28 -28 -27 -28 -28 -28
-30 -30 -30 -30 -30 -30 -30 -30 -30 -30 -30 -30 -30 -30 -30 -30 -30 -30 -30 -29 -29 -29 -29 -29 -29 -29 -29 -29 -28 -28 -28 -28 -28 -28 -28 -28 -28 -28 -28 -28 -27 -28 -27 -27
-30 -30 -31 -30 -30 -30 -30 -30 -30 -30 -30 -30 -30 -30 -30 -30 -30 -30 -30 -29 -29 -29 -29 -29 -29 -29 -29 -29 -28 -28 -28 -28 -28 -28 -28 -27 -28 -28 -28 -28 -27 -27 -27 -27
-30 -31 -31 -30 -30 -30 -30 -30 -30 -30 -30 -30 -30 -30 -30 -30 -30 -29 -30 -30 -29 -29 -29 -29 -29 -29 -29 -28 -28 -29 -28 -28 -28 -28 -27 -27 -27 -27 -27 -27 -27 -27 -27 -27

GFSNW_500_temp_195.txt.gz
Temp
-15 -16 -17 -17 -17 -16 -17 -17 -17 -16 -16 -16 -16 -16 -15 -15 -15 -16 -16 -16 -17 -16 -16 -17 -17 -17 -17 -17 -18 -18 -18 -18 -18 -18 -18 -18 -18 -18 -19 -20 -19 -21 -22 -20
-16 -16 -15 -16 -16 -15 -16 -16 -16 -15 -15 -16 -16 -16 -16 -16 -16 -17 -17 -17 -17 -17 -17 -17 -17 -18 -18 -18 -18 -18 -19 -19 -18 -17 -17 -18 -19 -18 -19 -20 -21 -20 -23 -21
-17 -17 -16 -18 -17 -16 -16 -16 -16 -17 -16 -16 -16 -15 -15 -16 -17 -17 -17 -17 -17 -17 -17 -17 -18 -19 -19 -19 -19 -19 -19 -19 -20 -19 -18 -19 -19 -19 -19 -22 -22 -23 -23 -24
-18 -18 -19 -19 -17 -16 -17 -17 -17 -17 -16 -16 -16 -17 -17 -17 -17 -17 -17 -17 -17 -18 -18 -18 -19 -19 -20 -20 -21 -21 -21 -20 -20 -19 -19 -20 -20 -19 -20 -20 -22 -23 -23 -24
-18 -18 -18 -18 -17 -17 -17 -17 -17 -17 -17 -17 -17 -17 -17 -17 -18 -17 -18 -18 -19 -19 -19 -20 -20 -20 -20 -21 -21 -22 -21 -21 -21 -20 -21 -21 -21 -20 -22 -23 -24 -25 -25 -25
-19 -19 -18 -18 -18 -18 -18 -18 -18 -18 -18 -18 -18 -18 -18 -18 -19 -19 -19 -20 -20 -21 -21 -21 -21 -21 -21 -21 -22 -22 -23 -23 -23 -22 -24 -24 -22 -23 -25 -26 -26 -25 -25 -25
-19 -19 -19 -19 -20 -20 -19 -19 -19 -19 -19 -19 -20 -19 -20 -20 -20 -20 -20 -20 -21 -22 -21 -22 -22 -22 -22 -22 -22 -23 -23 -24 -25 -25 -26 -26 -25 -24 -27 -28 -27 -25 -27 -27
-22 -21 -22 -20 -20 -20 -20 -20 -20 -20 -20 -20 -20 -20 -21 -21 -21 -21 -21 -21 -22 -21 -23 -23 -22 -23 -23 -23 -23 -23 -25 -26 -27 -27 -27 -27 -26 -27 -28 -28 -27 -28 -27 -27
-22 -22 -22 -22 -22 -21 -21 -21 -21 -21 -21 -21 -21 -22 -22 -22 -22 -22 -22 -23 -22 -24 -24 -24 -23 -23 -24 -24 -24 -26 -27 -27 -28 -28 -28 -28 -27 -27 -27 -28 -27 -28 -27 -27
-23 -23 -22 -22 -22 -22 -22 -22 -23 -23 -22 -23 -23 -23 -23 -23 -23 -24 -24 -24 -24 -25 -25 -25 -25 -25 -26 -26 -27 -27 -28 -28 -28 -28 -28 -28 -28 -28 -28 -28 -28 -28 -27 -27
-23 -23 -23 -22 -22 -23 -23 -23 -23 -24 -24 -24 -24 -25 -25 -25 -25 -25 -25 -25 -25 -26 -26 -26 -27 -27 -27 -27 -28 -28 -28 -28 -28 -29 -29 -28 -29 -28 -28 -28 -28 -28 -28 -27
-24 -24 -24 -23 -23 -24 -25 -25 -26 -26 -26 -26 -26 -26 -26 -26 -26 -26 -27 -27 -28 -28 -28 -28 -28 -29 -29 -29 -29 -29 -29 -29 -28 -28 -29 -29 -29 -28 -29 -28 -28 -28 -28 -27
-24 -25 -25 -26 -26 -26 -26 -27 -27 -27 -27 -27 -27 -27 -27 -27 -27 -27 -28 -29 -29 -28 -29 -29 -30 -30 -30 -30 -30 -30 -29 -29 -29 -29 -29 -29 -29 -29 -29 -29 -29 -28 -28 -28
-26 -26 -26 -27 -27 -27 -27 -27 -27 -28 -27 -27 -27 -27 -27 -27 -28 -28 -28 -29 -29 -30 -31 -31 -31 -31 -31 -31 -31 -31 -30 -30 -30 -30 -29 -30 -29 -30 -29 -29 -29 -28 -28 -28
-28 -28 -28 -28 -28 -28 -28 -28 -28 -28 -28 -28 -28 -28 -28 -29 -29 -29 -30 -31 -31 -31 -31 -31 -31 -31 -32 -31 -31 -30 -31 -31 -30 -30 -30 -30 -30 -30 -29 -29 -29 -29 -29 -29
-28 -28 -28 -28 -28 -28 -28 -28 -28 -28 -28 -29 -29 -30 -30 -30 -30 -30 -30 -31 -31 -32 -32 -31 -31 -32 -32 -31 -30 -30 -31 -31 -31 -30 -30 -30 -30 -29 -29 -29 -29 -29 -29 -29
-29 -29 -29 -29 -29 -29 -29 -29 -29 -29 -30 -30 -30 -30 -30 -30 -30 -31 -31 -31 -31 -31 -31 -31 -31 -32 -31 -31 -30 -31 -30 -30 -30 -30 -30 -29 -30 -30 -30 -30 -29 -29 -29 -29
-29 -29 -29 -29 -29 -30 -30 -30 -30 -30 -30 -30 -30 -30 -30 -30 -31 -31 -31 -31 -31 -31 -31 -31 -31 -31 -30 -30 -30 -30 -30 -30 -29 -29 -29 -29 -29 -29 -29 -29 -29 -29 -29 -28
-30 -30 -30 -30 -30 -31 -31 -30 -30 -30 -30 -30 -30 -30 -30 -31 -31 -31 -31 -30 -30 -30 -30 -30 -30 -29 -29 -29 -29 -29 -29 -29 -28 -29 -29 -29 -29 -28 -29 -29 -29 -29 -29 -29
-31 -31 -31 -31 -30 -30 -30 -30 -30 -30 -30 -30 -30 -30 -30 -30 -30 -30 -30 -30 -30 -30 -30 -30 -29 -29 -29 -29 -29 -29 -29 -29 -29 -28 -28 -28 -28 -29 -29 -29 -29 -29 -29 -29
-31 -30 -30 -30 -30 -30 -30 -30 -30 -30 -30 -30 -30 -30 -30 -30 -30 -30 -30 -30 -30 -30 -29 -29 -29 -29 -29 -29 -29 -29 -29 -28 -28 -28 -28 -28 -28 -28 -29 -28 -29 -29 -28 -28
-31 -30 -30 -30 -30 -30 -30 -30 -30 -30 -30 -30 -30 -30 -30 -30 -30 -30 -30 -29 -29 -30 -29 -29 -29 -29 -28 -29 -29 -28 -29 -29 -28 -28 -28 -28 -28 -28 -28 -28 -28 -28 -28 -28
-31 -30 -30 -30 -30 -30 -30 -30 -30 -30 -30 -30 -30 -30 -30 -30 -30 -30 -30 -30 -29 -29 -29 -29 -29 -29 -29 -29 -29 -29 -29 -28 -28 -28 -28 -28 -28 -28 -28 -28 -28 -28 -28 -28
-31 -30 -30 -30 -30 -30 -30 -30 -30 -30 -30 -30 -30 -30 -30 -30 -30 -30 -30 -30 -29 -29 -29 -29 -29 -29 -29 -29 -29 -29 -29 -29 -29 -28 -28 -28 -28 -28 -28 -28 -28 -28 -28 -28
-31 -30 -30 -30 -30 -30 -30 -30 -30 -30 -30 -30 -30 -30 -30 -30 -30 -30 -30 -30 -29 -29 -29 -29 -29 -29 -29 -29 -29 -29 -29 -29 -28 -28 -28 -28 -28 -28 -28 -28 -28 -28 -28 -27
-30 -30 -30 -30 -30 -30 -30 -30 -30 -30 -30 -30 -30 -30 -30 -30 -30 -30 -30 -30 -30 -29 -29 -29 -29 -29 -29 -29 -29 -29 -29 -29 -29 -28 -28 -28 -28 -28 -28 -28 -28 -28 -27 -27
-30 -31 -30 -30 -30 -30 -30 -30 -30 -30 -30 -30 -30 -30 -30 -30 -30 -30 -29 -29 -30 -29 -30 -29 -29 -29 -29 -29 -29 -29 -28 -29 -29 -28 -28 -28 -28 -28 -28 -28 -28 -27 -27 -27

GFSNW_500_temp_198.txt.gz
Temp
-15 -15 -15 -16 -15 -14 -15 -15 -15 -15 -15 -15 -15 -16 -16 -16 -16 -16 -15 -16 -16 -15 -14 -15 -16 -15 -15 -15 -15 -16 -16 -16 -17 -17 -18 -18 -18 -19 -20 -19 -18 -19 -20 -16
-16 -16 -16 -16 -14 -15 -16 -14 -15 -15 -17 -16 -16 -16 -16 -16 -17 -16 -17 -17 -16 -15 -15 -16 -17 -17 -16 -17 -17 -16 -17 -17 -16 -17 -18 -18 -19 -19 -20 -21 -21 -21 -21 -18
-17 -17 -17 -16 -16 -16 -15 -15 -15 -15 -17 -15 -16 -17 -16 -17 -16 -16 -17 -16 -16 -15 -16 -17 -17 -17 -17 -17 -17 -17 -18 -18 -18 -18 -19 -18 -18 -18 -19 -20 -20 -20 -19 -21
-17 -18 -18 -18 -18 -17 -16 -15 -15 -16 -16 -16 -17 -16 -16 -17 -16 -16 -16 -16 -16 -17 -17 -17 -17 -18 -18 -17 -17 -18 -19 -19 -19 -19 -19 -19 -19 -18 -19 -19 -22 -23 -20 -21
-19 -20 -20 -20 -17 -16 -16 -17 -18 -17 -17 -17 -17 -16 -17 -17 -16 -16 -17 -17 -18 -18 -18 -18 -18 -18 -18 -19 -19 -19 -20 -20 -20 -19 -20 -20 -19 -18 -20 -22 -22 -22 -22 -22
-18 -19 -19 -19 -19 -17 -18 -18 -17 -18 -18 -18 -17 -17 -16 -17 -17 -17 -17 -17 -18 -18 -18 -19 -19 -19 -19 -20 -20 -20 -20 -21 -21 -19 -21 -21 -20 -21 -21 -22 -23 -23 -23 -24
-19 -19 -19 -19 -18 -18 -18 -17 -17 -17 -17 -18 -17 -17 -18 -17 -18 -18 -19 -19 -19 -19 -19 -20 -20 -20 -20 -20 -21 -21 -21 -22 -22 -21 -22 -21 -21 -21 -23 -24 -25 -25 -26 -26
-21 -20 -20 -19 -18 -18 -18 -18 -17 -18 -18 -18 -18 -18 -18 -18 -19 -20 -20 -19 -20 -20 -20 -20 -20 -21 -21 -21 -21 -21 -22 -23 -23 -23 -23 -23 -21 -24 -25 -26 -26 -26 -27 -27
-20 -20 -20 -20 -19 -19 -19 -19 -19 -19 -19 -19 -19 -19 -20 -20 -20 -20 -20 -20 -20 -21 -21 -21 -21 -21 -21 -22 -22 -22 -24 -24 -24 -24 -25 -25 -24 -26 -26 -27 -27 -28 -28 -27
-22 -21 -21 -21 -21 -21 -20 -20 -20 -20 -20 -20 -21 -21 -21 -21 -21 -21 -21 -21 -22 -22 -22 -22 -22 -22 -23 -23 -23 -24 -24 -26 -26 -27 -27 -27 -27 -27 -28 -28 -28 -28 -28 -28
-23 -23 -23 -23 -23 -22 -22 -22 -21 -22 -22 -21 -21 -21 -21 -22 -22 -23 -23 -23 -23 -23 -23 -23 -23 -23 -24 -24 -24 -25 -26 -27 -27 -28 -28 -28 -29 -29 -29 -29 -29 -28 -28 -28
-23 -23 -22 -22 -22 -22 -22 -22 -23 -23 -23 -23 -22 -22 -22 -23 -23 -23 -23 -23 -24 -24 -25 -25 -25 -25 -25 -26 -26 -27 -27 -27 -28 -28 -29 -29 -29 -29 -29 -29 -29 -29 -29 -28
-23 -23 -23 -23 -23 -23 -23 -23 -23 -23 -23 -23 -23 -22 -23 -24 -24 -25 -25 -25 -25 -25 -25 -26 -26 -26 -27 -28 -28 -28 -28 -29 -30 -30 -29 -29 -29 -29 -30 -29 -29 -29 -29 -29
-24 -24 -24 -23 -23 -23 -23 -23 -23 -23 -24 -25 -25 -25 -24 -25 -25 -26 -26 -27 -27 -27 -27 -27 -28 -28 -29 -29 -30 -30 -30 -30 -30 -31 -30 -30 -29 -30 -30 -30 -29 -29 -29 -29
-25 -25 -25 -25 -26 -26 -25 -25 -25 -25 -26 -26 -26 -26 -26 -26 -26 -26 -27 -27 -27 -28 -29 -29 -30 -30 -31 -31 -31 -30 -31 -31 -31 -31 -31 -30 -30 -30 -30 -30 -30 -30 -29 -29
-28 -27 -27 -27 -27 -27 -26 -27 -27 -27 -27 -26 -26 -27 -27 -27 -27 -28 -28 -28 -29 -29 -30 -31 -31 -31 -31 -30 -31 -31 -31 -31 -31 -30 -30 -30 -30 -30 -30 -29 -30 -30 -30 -29
-28 -28 -28 -27 -27 -27 -27 -27 -27 -27 -27 -27 -27 -28 -28 -29 -29 -29 -30 -30 -30 -31 -31 -31 -31 -31 -30 -30 -30 -30 -30 -30 -30 -30 -30 -29 -30 -30 -30 -30 -30 -30 -29 -29
-28 -28 -28 -28 -28 -27 -27 -28 -28 -28 -29 -29 -29 -30 -30 -30 -30 -31 -31 -31 -31 -31 -31 -31 -30 -30 -29 -30 -30 -30 -30 -30 -29 -29 -29 -29 -29 -29 -29 -29 -29 -29 -29 -29
-28 -29 -28 -28 -28 -28 -29 -30 -30 -30 -29 -30 -30 -30 -30 -31 -31 -31 -30 -30 -30 -30 -30 -30 -30 -30 -29 -29 -29 -29 -29 -29 -29 -29 -29 -29 -29 -29 -29 -29 -29 -29 -29 -29
-30 -30 -30 -30 -30 -30 -30 -30 -30 -30 -30 -30 -30 -30 -30 -30 -30 -30 -30 -30 -30 -30 -30 -30 -29 -29 -29 -29 -29 -29 -29 -29 -29 -29 -29 -29 -29 -28 -28 -29 -29 -29 -29 -29
-30 -30 -30 -30 -30 -30 -30 -30 -30 -30 -30 -30 -30 -30 -30 -30 -30 -30 -30 -30 -30 -30 -29 -29 -29 -29 -29 -29 -29 -29 -29 -29 -29 -29 -29 -29 -28 -28 -28 -28 -28 -28 -28 -28
-31 -30 -30 -30 -30 -30 -30 -30 -30 -30 -30 -30 -30 -30 -30 -30 -30 -30 -30 -30 -30 -29 -29 -29 -29 -29 -29 -29 -29 -29 -29 -29 -29 -29 -28 -28 -28 -28 -28 -28 -28 -28 -28 -28
-31 -30 -30 -30 -30 -30 -30 -30 -30 -30 -30 -30 -30 -30 -30 -30 -30 -30 -30 -30 -30 -29 -29 -29 -29 -29 -29 -29 -29 -29 -29 -29 -29 -29 -29 -28 -28 -28 -28 -28 -28 -28 -28 -28
-30 -30 -30 -30 -30 -30 -30 -30 -30 -30 -30 -30 -30 -30 -30 -30 -30 -30 -30 -30 -30 -30 -29 -29 -29 -29 -29 -29 -29 -29 -29 -29 -29 -29 -29 -29 -28 -28 -28 -28 -28 -28 -28 -28
-30 -30 -30 -30 -30 -30 -30 -30 -30 -30 -30 -30 -30 -30 -30 -30 -30 -30 -30 -30 -30 -30 -29 -29 -29 -29 -29 -29 -29 -29 -29 -29 -29 -29 -29 -29 -28 -28 -28 -28 -28 -28 -28 -28
-30 -31 -30 -30 -30 -30 -30 -30 -30 -30 -30 -30 -30 -30 -30 -30 -30 -30 -30 -30 -30 -30 -30 -29 -29 -29 -29 -29 -29 -29 -29 -29 -29 -28 -29 -29 -28 -28 -28 -28 -28 -28 -28 -28
-31 -31 -30 -30 -30 -30 -30 -30 -30 -31 -31 -31 -31 -30 -30 -30 -30 -30 -30 -30 -30 -30 -30 -29 -30 -29 -29 -29 -29 -29 -29 -29 -28 -28 -28 -28 -28 -28 -28 -28 -28 -28 -28 -27

GFSNW_500_temp_204.txt.gz
Temp
-25 -22 -19 -17 -18 -19 -18 -17 -17 -16 -17 -17 -17 -16 -15 -15 -15 -15 -15 -15 -15 -14 -15 -14 -14 -13 -15 -14 -15 -16 -16 -15 -15 -14 -15 -15 -15 -15 -16 -16 -15 -16 -15 -11
-28 -25 -22 -20 -19 -20 -19 -18 -18 -18 -17 -18 -17 -16 -16 -16 -14 -15 -15 -15 -15 -15 -15 -14 -14 -15 -15 -15 -15 -16 -16 -16 -16 -15 -15 -15 -15 -15 -15 -16 -16 -16 -16 -13
-28 -27 -25 -22 -21 -20 -19 -19 -18 -19 -18 -17 -17 -16 -16 -15 -14 -15 -15 -15 -15 -15 -15 -15 -15 -16 -16 -16 -16 -16 -16 -16 -16 -16 -17 -17 -16 -17 -17 -17 -18 -17 -16 -15
-28 -28 -27 -24 -22 -20 -20 -19 -20 -20 -18 -17 -16 -16 -15 -16 -16 -15 -16 -16 -14 -15 -16 -16 -16 -16 -16 -16 -16 -17 -17 -17 -17 -16 -17 -17 -17 -17 -17 -18 -18 -18 -18 -17
-28 -29 -28 -26 -23 -21 -21 -20 -21 -21 -18 -17 -16 -16 -15 -15 -15 -14 -16 -15 -15 -16 -16 -16 -16 -17 -17 -17 -17 -17 -17 -17 -17 -17 -17 -17 -18 -17 -17 -18 -19 -19 -19 -17
-27 -28 -28 -28 -24 -24 -24 -22 -21 -21 -19 -18 -17 -16 -15 -15 -15 -16 -16 -16 -16 -16 -16 -16 -16 -17 -17 -17 -17 -17 -17 -17 -17 -17 -18 -18 -18 -17 -18 -19 -19 -20 -19 -19
-27 -28 -28 -28 -26 -27 -25 -23 -22 -21 -20 -18 -17 -17 -16 -16 -16 -17 -16 -16 -16 -17 -17 -17 -17 -17 -17 -17 -18 -17 -17 -18 -18 -18 -18 -18 -18 -18 -19 -19 -20 -20 -20 -20
-27 -28 -28 -28 -27 -27 -25 -23 -22 -22 -20 -18 -18 -17 -17 -16 -16 -16 -16 -16 -16 -17 -18 -18 -18 -18 -18 -18 -17 -17 -18 -18 -19 -19 -19 -18 -18 -18 -19 -19 -20 -21 -21 -20
-27 -27 -27 -27 -27 -26 -25 -22 -22 -20 -20 -18 -17 -17 -17 -16 -16 -16 -17 -17 -17 -17 -18 -18 -18 -19 -19 -18 -18 -18 -18 -19 -20 -20 -19 -19 -20 -20 -20 -20 -20 -21 -21 -21
-26 -26 -26 -27 -26 -26 -25 -23 -22 -20 -19 -18 -18 -18 -17 -16 -17 -17 -17 -17 -17 -18 -18 -19 -18 -19 -19 -19 -19 -20 -20 -20 -20 -20 -20 -20 -20 -20 -20 -20 -21 -21 -21 -22
-25 -25 -24 -23 -24 -25 -24 -22 -21 -19 -19 -18 -18 -17 -17 -18 -18 -18 -18 -18 -18 -19 -19 -19 -19 -20 -20 -20 -20 -20 -20 -21 -21 -21 -21 -20 -20 -20 -21 -21 -21 -21 -23 -24
-24 -23 -23 -23 -23 -23 -23 -22 -21 -20 -20 -19 -19 -18 -19 -19 -19 -19 -20 -19 -19 -19 -20 -20 -21 -20 -21 -21 -21 -21 -21 -21 -21 -21 -21 -21 -21 -21 -22 -22 -23 -24 -25 -26
-23 -23 -22 -22 -22 -22 -22 -22 -21 -20 -20 -19 -20 -20 -20 -20 -20 -19 -20 -20 -20 -21 -21 -21 -21 -21 -21 -21 -21 -22 -21 -22 -22 -22 -22 -23 -22 -23 -23 -24 -25 -26 -27 -28
-24 -23 -23 -22 -22 -22 -22 -21 -21 -20 -20 -20 -20 -20 -20 -20 -21 -21 -21 -21 -21 -22 -22 -22 -22 -22 -22 -22 -22 -22 -23 -23 -23 -22 -22 -25 -24 -25 -26 -26 -27 -28 -29 -30
-24 -24 -24 -24 -23 -22 -22 -22 -21 -20 -21 -20 -22 -22 -22 -22 -22 -23 -23 -23 -23 -22 -22 -22 -22 -22 -22 -22 -22 -23 -25 -24 -23 -24 -26 -26 -26 -27 -27 -28 -28 -30 -30 -29
-25 -25 -24 -24 -24 -24 -24 -23 -22 -22 -22 -23 -23 -23 -23 -23 -23 -23 -23 -23 -22 -23 -23 -23 -23 -23 -23 -23 -24 -25 -25 -25 -26 -26 -27 -27 -28 -28 -28 -28 -28 -28 -29 -29
-26 -26 -25 -25 -24 -24 -24 -24 -23 -23 -23 -23 -23 -24 -24 -24 -24 -24 -24 -24 -24 -24 -24 -24 -24 -24 -24 -26 -26 -25 -27 -28 -28 -28 -28 -28 -28 -29 -29 -29 -29 -29 -29 -29
-27 -27 -26 -26 -26 -26 -26 -26 -25 -25 -25 -25 -25 -25 -25 -25 -25 -25 -25 -25 -25 -25 -25 -25 -25 -25 -26 -28 -28 -28 -28 -29 -28 -28 -28 -29 -29 -29 -29 -29 -29 -29 -29 -29
-27 -27 -27 -27 -27 -27 -27 -26 -26 -26 -26 -26 -26 -26 -26 -26 -26 -26 -26 -26 -26 -27 -27 -26 -27 -28 -29 -29 -29 -29 -29 -29 -28 -28 -28 -28 -29 -28 -28 -28 -28 -28 -28 -28
-28 -28 -27 -27 -27 -27 -27 -27 -27 -27 -27 -27 -27 -28 -28 -28 -29 -29 -29 -29 -29 -29 -29 -29 -29 -29 -29 -29 -29 -29 -29 -29 -29 -29 -29 -29 -29 -28 -28 -29 -28 -29 -29 -29
-29 -28 -28 -28 -28 -28 -28 -28 -29 -29 -29 -29 -29 -29 -30 -30 -30 -30 -30 -30 -30 -30 -30 -30 -29 -29 -29 -29 -29 -29 -29 -29 -29 -29 -29 -29 -29 -29 -29 -29 -29 -28 -28 -28
-31 -30 -30 -30 -30 -30 -30 -30 -30 -30 -30 -30 -30 -30 -30 -30 -30 -30 -30 -30 -30 -30 -30 -30 -30 -29 -29 -29 -29 -29 -29 -29 -29 -29 -29 -29 -29 -29 -29 -29 -29 -28 -28 -28
-31 -31 -31 -30 -30 -30 -30 -30 -30 -30 -30 -30 -30 -30 -30 -30 -30 -30 -30 -30 -30 -30 -30 -30 -29 -29 -29 -29 -29 -29 -29 -29 -29 -29 -29 -29 -29 -29 -29 -29 -29 -28 -28 -28
-31 -31 -31 -30 -30 -30 -30 -30 -30 -30 -30 -30 -30 -30 -30 -30 -30 -30 -30 -30 -30 -30 -30 -30 -30 -30 -30 -29 -29 -30 -29 -29 -29 -29 -29 -29 -29 -28 -28 -29 -28 -28 -28 -28
-31 -31 -30 -30 -30 -30 -30 -30 -30 -30 -30 -30 -30 -30 -30 -30 -30 -30 -30 -30 -30 -30 -30 -30 -30 -30 -30 -30 -30 -29 -29 -29 -29 -29 -29 -28 -28 -28 -28 -28 -28 -28 -28 -28
-31 -31 -31 -30 -30 -30 -30 -30 -30 -30 -30 -30 -30 -30 -30 -30 -30 -30 -30 -30 -30 -30 -30 -30 -30 -30 -30 -30 -30 -30 -30 -29 -29 -29 -29 -28 -28 -28 -28 -28 -28 -28 -28 -28
-31 -31 -31 -31 -31 -30 -30 -30 -30 -30 -30 -30 -30 -30 -30 -30 -30 -30 -30 -30 -30 -30 -30 -30 -30 -30 -30 -30 -29 -29 -29 -29 -29 -29 -29 -28 -28 -28 -28 -28 -28 -28 -28 -28

GFSNW_500_temp_207.txt.gz
Temp
-24 -25 -25 -25 -21 -19 -20 -19 -18 -16 -18 -19 -17 -17 -17 -15 -14 -15 -16 -15 -15 -15 -15 -15 -14 -14 -13 -13 -14 -14 -14 -14 -14 -13 -13 -14 -14 -14 -14 -14 -14 -14 -14 -12
-23 -25 -26 -26 -26 -23 -21 -20 -17 -18 -18 -19 -19 -18 -16 -16 -15 -15 -15 -15 -16 -16 -16 -16 -15 -14 -14 -13 -14 -15 -14 -14 -14 -14 -13 -13 -13 -14 -15 -15 -15 -14 -14 -12
-24 -25 -27 -28 -27 -26 -25 -22 -19 -19 -19 -19 -20 -19 -16 -15 -15 -15 -16 -16 -16 -15 -16 -15 -15 -14 -14 -14 -14 -15 -16 -15 -15 -15 -16 -15 -15 -15 -16 -16 -16 -15 -13 -14
-24 -26 -28 -29 -29 -28 -29 -26 -21 -20 -19 -19 -19 -19 -18 -16 -16 -16 -15 -16 -15 -15 -16 -16 -16 -15 -14 -14 -15 -15 -16 -16 -16 -16 -16 -16 -15 -16 -16 -15 -16 -15 -15 -14
-24 -27 -29 -29 -30 -29 -29 -28 -23 -21 -20 -19 -20 -19 -18 -17 -16 -16 -15 -15 -14 -15 -16 -16 -16 -16 -15 -16 -16 -16 -16 -16 -16 -16 -16 -16 -16 -15 -15 -15 -16 -16 -16 -15
-25 -29 -29 -30 -30 -29 -29 -29 -26 -24 -21 -20 -20 -20 -18 -18 -17 -16 -15 -15 -15 -16 -17 -16 -16 -16 -16 -16 -16 -16 -17 -17 -17 -16 -17 -17 -16 -15 -16 -16 -17 -18 -17 -17
-27 -29 -29 -29 -30 -29 -29 -28 -27 -25 -23 -20 -20 -20 -18 -18 -17 -16 -15 -15 -15 -16 -16 -16 -17 -16 -16 -17 -17 -17 -17 -17 -18 -17 -17 -17 -16 -15 -16 -17 -17 -17 -17 -17
-29 -29 -29 -30 -30 -29 -28 -28 -27 -25 -23 -22 -21 -19 -19 -18 -18 -18 -17 -16 -17 -17 -16 -16 -16 -17 -17 -17 -17 -17 -17 -17 -18 -18 -17 -17 -16 -16 -17 -18 -18 -18 -18 -19
-28 -29 -29 -30 -29 -29 -28 -27 -26 -26 -24 -22 -21 -20 -19 -19 -18 -18 -18 -17 -17 -17 -16 -16 -16 -16 -17 -17 -17 -17 -17 -18 -18 -17 -17 -17 -17 -17 -18 -18 -18 -19 -20 -20
-28 -28 -29 -29 -29 -28 -28 -26 -25 -26 -25 -23 -21 -20 -20 -19 -18 -18 -18 -17 -17 -16 -17 -17 -17 -17 -18 -18 -17 -18 -18 -18 -18 -18 -18 -18 -18 -19 -19 -19 -19 -20 -20 -20
-27 -27 -28 -28 -28 -28 -27 -26 -25 -25 -24 -23 -21 -21 -20 -20 -19 -18 -17 -18 -17 -17 -17 -17 -17 -17 -18 -18 -18 -18 -18 -18 -18 -19 -18 -18 -19 -19 -20 -20 -20 -20 -20 -20
-26 -26 -27 -27 -27 -27 -26 -25 -24 -24 -24 -23 -21 -20 -20 -20 -19 -19 -19 -18 -17 -17 -17 -17 -17 -17 -18 -19 -19 -19 -19 -19 -19 -19 -20 -20 -20 -21 -21 -21 -21 -21 -21 -21
-25 -25 -25 -26 -26 -26 -25 -25 -24 -24 -23 -23 -22 -21 -20 -20 -19 -18 -19 -19 -18 -18 -19 -19 -19 -19 -19 -19 -19 -20 -19 -19 -20 -21 -21 -21 -22 -21 -21 -21 -21 -21 -21 -22
-25 -24 -25 -25 -25 -26 -25 -25 -24 -23 -22 -22 -22 -21 -21 -20 -20 -20 -19 -19 -19 -19 -19 -19 -20 -20 -20 -20 -20 -20 -20 -21 -21 -22 -22 -22 -22 -22 -22 -21 -22 -23 -23 -24
-24 -24 -24 -24 -24 -25 -25 -24 -24 -23 -23 -22 -22 -21 -20 -20 -19 -19 -20 -20 -20 -20 -19 -20 -21 -21 -21 -21 -21 -21 -22 -22 -22 -22 -23 -22 -23 -23 -23 -24 -24 -25 -25 -27
-25 -24 -24 -24 -24 -24 -23 -23 -22 -22 -22 -22 -21 -20 -20 -20 -20 -21 -21 -21 -21 -21 -21 -21 -21 -22 -22 -22 -22 -23 -22 -22 -23 -24 -23 -23 -23 -24 -25 -26 -28 -28 -28 -28
-26 -26 -25 -24 -24 -24 -24 -23 -23 -23 -23 -23 -22 -22 -21 -22 -22 -23 -23 -22 -23 -23 -23 -23 -23 -23 -23 -23 -23 -22 -23 -24 -24 -24 -24 -25 -26 -27 -28 -28 -28 -28 -28 -28
-27 -27 -26 -26 -26 -25 -24 -25 -24 -24 -24 -24 -24 -24 -24 -24 -24 -24 -24 -24 -24 -24 -23 -23 -23 -23 -24 -24 -24 -24 -24 -25 -25 -26 -28 -28 -28 -28 -28 -28 -28 -28 -28 -28
-28 -27 -27 -27 -27 -26 -26 -26 -26 -25 -25 -24 -25 -25 -25 -25 -25 -25 -24 -24 -23 -23 -23 -24 -24 -25 -25 -24 -26 -26 -27 -27 -28 -28 -28 -28 -28 -28 -28 -28 -28 -28 -28 -28
-28 -28 -28 -27 -27 -27 -27 -27 -27 -27 -26 -26 -25 -25 -25 -25 -25 -25 -25 -25 -25 -26 -26 -26 -26 -27 -26 -27 -28 -28 -29 -29 -29 -28 -28 -28 -28 -28 -29 -28 -28 -28 -28 -28
-28 -28 -28 -28 -28 -28 -28 -27 -27 -27 -27 -27 -27 -27 -27 -27 -27 -27 -27 -27 -27 -28 -28 -28 -28 -28 -29 -29 -29 -29 -29 -29 -29 -28 -28 -28 -28 -28 -28 -28 -29 -29 -28 -28
-29 -29 -29 -28 -28 -28 -28 -28 -28 -28 -28 -28 -28 -28 -28 -29 -29 -29 -29 -29 -30 -29 -30 -29 -29 -29 -29 -29 -29 -29 -29 -29 -29 -29 -29 -29 -28 -28 -28 -29 -28 -29 -29 -28
-31 -31 -31 -30 -30 -30 -30 -29 -29 -29 -29 -29 -30 -30 -30 -30 -30 -30 -30 -30 -30 -30 -30 -30 -30 -30 -30 -29 -29 -29 -29 -29 -29 -29 -29 -29 -29 -29 -28 -29 -28 -28 -28 -28
-31 -31 -31 -31 -31 -30 -30 -30 -30 -30 -30 -30 -30 -30 -30 -30 -30 -30 -30 -30 -30 -29 -30 -30 -30 -30 -30 -29 -29 -29 -29 -29 -29 -29 -29 -29 -29 -29 -28 -28 -28 -28 -28 -28
-31 -31 -31 -31 -30 -30 -30 -30 -30 -30 -30 -30 -30 -30 -30 -30 -30 -30 -30 -30 -30 -30 -30 -30 -30 -30 -29 -29 -29 -29 -29 -29 -29 -29 -29 -29 -29 -29 -28 -28 -28 -28 -28 -28
-31 -31 -31 -30 -30 -30 -30 -30 -30 -30 -30 -30 -30 -30 -30 -30 -30 -30 -30 -30 -30 -30 -30 -30 -30 -30 -30 -30 -30 -30 -30 -30 -30 -29 -29 -29 -29 -29 -29 -28 -28 -28 -28 -28
-31 -31 -31 -31 -31 -30 -30 -30 -30 -30 -30 -30 -30 -30 -30 -30 -30 -30 -30 -30 -30 -30 -30 -30 -30 -30 -30 -30 -30 -30 -30 -30 -30 -29 -29 -29 -29 -29 -29 -28 -28 -28 -28 -28

GFSNW_500_temp_210.txt.gz
Temp
-21 -22 -23 -24 -25 -25 -24 -20 -17 -17 -19 -19 -19 -19 -17 -17 -15 -16 -15 -15 -15 -15 -15 -14 -14 -15 -15 -14 -15 -14 -15 -13 -14 -13 -13 -14 -14 -13 -13 -13 -13 -13 -13 -12
-20 -21 -23 -24 -25 -26 -25 -24 -18 -18 -20 -20 -19 -19 -18 -18 -16 -16 -15 -15 -15 -14 -16 -15 -15 -15 -15 -15 -15 -15 -15 -14 -14 -14 -13 -13 -13 -13 -13 -13 -14 -12 -13 -12
-21 -21 -23 -24 -25 -25 -26 -27 -22 -20 -22 -19 -19 -19 -19 -17 -17 -16 -15 -15 -15 -15 -15 -15 -15 -15 -15 -15 -15 -15 -15 -15 -14 -14 -14 -12 -13 -14 -15 -15 -14 -14 -12 -14
-22 -22 -24 -24 -24 -26 -26 -27 -25 -23 -22 -20 -19 -19 -20 -19 -18 -17 -17 -17 -16 -16 -15 -15 -15 -15 -15 -15 -15 -15 -16 -15 -15 -15 -14 -14 -13 -13 -14 -14 -14 -15 -14 -15
-22 -23 -24 -25 -25 -26 -26 -26 -26 -26 -24 -22 -19 -19 -19 -19 -18 -18 -17 -16 -15 -15 -14 -14 -14 -16 -16 -16 -16 -16 -16 -15 -15 -15 -15 -15 -14 -14 -15 -15 -15 -15 -15 -16
-24 -24 -25 -25 -26 -26 -26 -27 -28 -29 -27 -26 -21 -20 -20 -20 -19 -18 -18 -16 -15 -15 -15 -15 -15 -16 -16 -16 -17 -17 -17 -16 -16 -16 -16 -17 -16 -14 -14 -15 -16 -15 -15 -16
-25 -25 -25 -26 -27 -27 -27 -28 -29 -29 -27 -26 -24 -21 -20 -20 -19 -18 -17 -17 -16 -17 -16 -15 -17 -17 -17 -16 -16 -16 -16 -16 -16 -17 -17 -17 -15 -15 -15 -16 -16 -16 -16 -16
-28 -28 -28 -28 -29 -29 -29 -30 -30 -29 -27 -26 -26 -24 -23 -21 -20 -19 -18 -18 -17 -16 -17 -17 -17 -17 -17 -17 -17 -16 -16 -17 -16 -17 -17 -16 -15 -15 -16 -16 -16 -16 -16 -17
-28 -29 -29 -29 -29 -30 -29 -30 -29 -28 -26 -25 -26 -25 -23 -22 -21 -20 -19 -18 -18 -18 -18 -17 -17 -18 -17 -17 -16 -16 -17 -17 -17 -16 -17 -16 -16 -16 -16 -17 -16 -16 -17 -17
-28 -28 -29 -29 -30 -30 -30 -29 -29 -27 -26 -25 -24 -24 -24 -21 -21 -20 -20 -19 -18 -18 -18 -18 -18 -18 -17 -16 -16 -16 -16 -17 -16 -16 -17 -17 -17 -17 -17 -17 -16 -17 -17 -17
-28 -28 -29 -29 -29 -29 -29 -29 -29 -26 -25 -24 -24 -23 -23 -22 -21 -20 -20 -19 -19 -18 -18 -18 -18 -17 -17 -17 -16 -16 -17 -17 -17 -17 -18 -18 -17 -17 -18 -17 -17 -17 -17 -17
-27 -28 -28 -28 -29 -29 -29 -28 -27 -26 -25 -24 -24 -23 -23 -23 -21 -20 -20 -20 -19 -19 -18 -18 -18 -18 -17 -17 -17 -16 -17 -17 -17 -18 -18 -18 -18 -18 -17 -18 -17 -17 -17 -18
-27 -27 -28 -28 -28 -28 -28 -28 -26 -26 -25 -25 -24 -24 -23 -23 -22 -22 -21 -20 -20 -20 -19 -19 -19 -19 -18 -18 -17 -17 -17 -17 -17 -18 -18 -19 -19 -18 -18 -18 -18 -18 -19 -19
-26 -27 -27 -27 -28 -28 -26 -25 -25 -25 -25 -24 -24 -22 -22 -22 -23 -21 -21 -20 -20 -20 -19 -20 -19 -19 -18 -18 -18 -18 -18 -18 -19 -19 -19 -19 -19 -19 -19 -19 -20 -20 -20 -20
-26 -26 -26 -27 -27 -27 -27 -26 -26 -26 -25 -24 -23 -23 -22 -22 -22 -21 -21 -21 -21 -20 -19 -19 -19 -19 -20 -20 -19 -19 -19 -19 -19 -20 -20 -19 -19 -20 -20 -20 -21 -21 -21 -21
-26 -26 -26 -26 -26 -27 -26 -26 -26 -25 -24 -24 -24 -23 -23 -21 -21 -21 -20 -20 -20 -19 -19 -19 -19 -20 -20 -20 -19 -20 -20 -20 -20 -20 -21 -21 -21 -21 -21 -22 -22 -22 -22 -22
-26 -26 -26 -25 -26 -26 -25 -25 -25 -25 -25 -24 -24 -23 -23 -22 -22 -21 -21 -21 -20 -20 -19 -20 -20 -20 -20 -20 -20 -20 -20 -21 -22 -22 -22 -22 -22 -22 -22 -23 -23 -24 -25 -27
-27 -25 -26 -26 -25 -26 -25 -25 -25 -25 -25 -24 -23 -23 -23 -23 -22 -21 -21 -21 -20 -20 -21 -21 -21 -21 -21 -21 -21 -21 -22 -23 -22 -22 -22 -22 -23 -23 -24 -25 -27 -28 -28 -28
-27 -27 -26 -25 -26 -26 -26 -26 -25 -24 -24 -25 -24 -23 -22 -22 -22 -22 -22 -22 -22 -22 -22 -22 -22 -22 -22 -22 -22 -22 -23 -22 -23 -23 -23 -23 -24 -26 -28 -28 -28 -28 -28 -28
-28 -28 -27 -27 -27 -26 -26 -25 -26 -25 -25 -25 -25 -24 -24 -23 -22 -23 -23 -23 -23 -23 -23 -23 -23 -23 -23 -23 -23 -23 -23 -23 -24 -24 -25 -26 -28 -28 -28 -28 -28 -28 -28 -28
-28 -28 -28 -28 -28 -28 -28 -27 -26 -26 -26 -25 -25 -25 -24 -24 -24 -24 -24 -24 -24 -24 -25 -25 -24 -24 -24 -24 -24 -24 -25 -25 -26 -27 -28 -28 -28 -28 -28 -28 -28 -28 -28 -28
-28 -28 -28 -28 -28 -28 -27 -27 -27 -27 -27 -26 -26 -26 -26 -26 -26 -26 -26 -26 -26 -26 -25 -25 -25 -25 -26 -26 -26 -27 -28 -28 -29 -29 -28 -28 -28 -28 -28 -28 -28 -28 -28 -28
-30 -29 -29 -28 -28 -28 -28 -28 -27 -27 -27 -27 -27 -27 -27 -27 -27 -28 -28 -28 -28 -28 -28 -28 -28 -28 -28 -29 -29 -29 -29 -29 -29 -29 -29 -28 -28 -28 -28 -28 -28 -28 -28 -28
-31 -31 -30 -30 -30 -29 -29 -29 -29 -29 -28 -28 -29 -29 -29 -29 -29 -29 -29 -29 -29 -29 -29 -29 -30 -30 -30 -30 -29 -29 -29 -29 -29 -29 -29 -29 -29 -29 -28 -28 -28 -28 -28 -28
-31 -31 -31 -31 -30 -30 -30 -30 -30 -30 -30 -30 -30 -30 -30 -30 -30 -30 -30 -30 -30 -30 -29 -29 -30 -30 -30 -30 -30 -30 -29 -29 -29 -29 -29 -29 -29 -29 -29 -29 -29 -28 -28 -28
-31 -31 -31 -31 -30 -30 -30 -30 -30 -30 -30 -30 -30 -30 -30 -30 -30 -30 -30 -30 -30 -30 -30 -30 -30 -30 -30 -30 -30 -30 -29 -29 -29 -29 -29 -29 -29 -29 -29 -29 -29 -29 -29 -28
-31 -31 -31 -31 -31 -31 -30 -30 -30 -30 -30 -30 -30 -30 -30 -30 -30 -30 -30 -30 -30 -30 -30 -30 -30 -30 -30 -30 -30 -30 -30 -30 -30 -29 -29 -29 -29 -29 -29 -29 -29 -29 -29 -28

GFSNW_500_temp_216.txt.gz
Temp
-23 -23 -23 -23 -24 -24 -25 -25 -25 -23 -25 -25 -23 -20 -18 -17 -18 -18 -18 -18 -16 -16 -15 -14 -13 -13 -12 -13 -13 -13 -12 -12 -13 -12 -13 -13 -12 -12 -14 -12 -11 -11 -12 -12
-24 -24 -24 -24 -24 -25 -25 -25 -24 -25 -26 -26 -25 -23 -21 -19 -17 -18 -19 -19 -17 -16 -16 -15 -13 -12 -13 -14 -14 -13 -13 -14 -14 -13 -14 -12 -12 -12 -13 -14 -14 -11 -13 -10
-24 -24 -24 -24 -24 -25 -26 -26 -25 -26 -26 -25 -25 -25 -23 -22 -18 -17 -18 -19 -17 -17 -16 -16 -14 -14 -14 -14 -14 -14 -14 -13 -13 -12 -14 -14 -14 -13 -14 -14 -12 -12 -12 -13
-24 -24 -23 -22 -23 -23 -25 -25 -25 -23 -23 -23 -23 -23 -24 -24 -20 -18 -18 -18 -18 -17 -17 -16 -15 -14 -15 -15 -15 -15 -14 -14 -14 -14 -14 -15 -15 -14 -14 -14 -13 -13 -14 -14
-24 -24 -23 -23 -23 -23 -24 -24 -23 -23 -23 -25 -25 -25 -25 -24 -21 -21 -19 -20 -18 -16 -18 -17 -15 -14 -14 -13 -14 -14 -14 -14 -15 -15 -15 -15 -14 -15 -15 -14 -14 -14 -15 -14
-24 -23 -23 -23 -23 -23 -24 -24 -24 -23 -24 -24 -25 -24 -24 -25 -23 -22 -21 -22 -19 -19 -17 -17 -17 -15 -16 -17 -16 -15 -15 -14 -15 -14 -16 -17 -15 -14 -15 -15 -15 -14 -14 -14
-25 -24 -24 -24 -24 -24 -23 -24 -24 -25 -25 -25 -25 -26 -26 -27 -26 -24 -24 -22 -20 -20 -18 -17 -16 -18 -18 -18 -16 -16 -15 -15 -15 -16 -16 -17 -13 -14 -15 -15 -15 -14 -14 -14
-25 -25 -25 -25 -25 -25 -25 -25 -25 -25 -25 -25 -25 -26 -26 -28 -27 -26 -24 -23 -21 -20 -18 -17 -18 -17 -17 -18 -16 -16 -16 -16 -16 -17 -16 -16 -15 -14 -14 -15 -15 -15 -15 -15
-25 -26 -25 -26 -25 -25 -25 -25 -25 -25 -25 -26 -26 -26 -27 -28 -27 -27 -25 -23 -22 -20 -20 -18 -16 -16 -16 -17 -17 -16 -17 -17 -17 -17 -17 -17 -15 -16 -14 -15 -14 -15 -15 -15
-26 -26 -27 -26 -26 -26 -26 -26 -26 -26 -26 -26 -27 -27 -27 -27 -27 -27 -26 -23 -23 -20 -19 -17 -17 -16 -16 -16 -16 -15 -17 -16 -17 -16 -17 -16 -16 -15 -16 -15 -14 -15 -15 -16
-27 -27 -27 -27 -27 -27 -28 -27 -27 -27 -27 -27 -27 -27 -27 -27 -27 -27 -26 -25 -23 -21 -19 -18 -17 -17 -17 -17 -16 -17 -16 -16 -17 -16 -17 -16 -15 -16 -16 -16 -16 -16 -15 -15
-26 -27 -27 -28 -28 -28 -29 -28 -28 -28 -28 -28 -27 -27 -27 -26 -26 -26 -26 -25 -24 -21 -20 -19 -18 -18 -17 -17 -17 -16 -17 -16 -17 -16 -16 -16 -16 -16 -16 -16 -16 -16 -16 -16
-26 -27 -27 -28 -28 -28 -29 -29 -29 -28 -28 -28 -28 -27 -27 -27 -27 -26 -26 -26 -24 -23 -20 -20 -20 -18 -17 -17 -17 -17 -17 -17 -17 -17 -17 -16 -16 -16 -17 -16 -16 -16 -16 -16
-27 -27 -27 -28 -28 -28 -28 -29 -29 -29 -29 -29 -28 -28 -27 -27 -26 -26 -26 -25 -24 -23 -22 -20 -19 -19 -18 -18 -17 -18 -18 -18 -18 -18 -17 -17 -17 -17 -17 -17 -16 -16 -16 -16
-27 -27 -27 -28 -28 -28 -29 -29 -29 -28 -28 -28 -27 -27 -27 -26 -26 -25 -25 -25 -24 -23 -22 -20 -21 -19 -18 -18 -18 -18 -18 -18 -18 -18 -18 -18 -18 -17 -17 -17 -17 -17 -16 -17
-27 -27 -27 -28 -28 -28 -28 -28 -28 -28 -28 -27 -26 -26 -26 -26 -25 -25 -25 -24 -24 -23 -23 -21 -21 -20 -19 -19 -19 -19 -19 -19 -20 -19 -19 -18 -18 -18 -17 -17 -17 -17 -17 -17
-27 -27 -27 -28 -28 -28 -28 -27 -27 -27 -27 -27 -27 -26 -25 -25 -25 -25 -25 -24 -24 -23 -22 -21 -21 -22 -22 -21 -20 -19 -20 -20 -20 -20 -20 -19 -18 -18 -18 -17 -17 -17 -17 -17
-27 -27 -27 -27 -27 -27 -27 -27 -27 -27 -27 -27 -27 -26 -26 -25 -24 -24 -24 -24 -23 -23 -22 -22 -21 -21 -20 -20 -20 -21 -21 -19 -20 -20 -19 -19 -19 -18 -18 -18 -18 -18 -18 -19
-27 -27 -26 -26 -26 -26 -27 -27 -27 -26 -27 -26 -26 -26 -25 -25 -24 -24 -23 -23 -23 -24 -23 -22 -22 -21 -21 -21 -20 -20 -19 -20 -20 -19 -19 -19 -18 -18 -18 -18 -18 -19 -19 -20
-28 -27 -27 -26 -26 -26 -26 -26 -26 -26 -26 -26 -26 -25 -25 -26 -25 -25 -24 -24 -23 -23 -23 -23 -22 -22 -22 -21 -21 -21 -21 -21 -20 -20 -19 -19 -19 -20 -20 -19 -20 -20 -21 -21
-28 -28 -27 -28 -27 -27 -26 -26 -26 -26 -26 -26 -25 -25 -25 -25 -25 -25 -25 -24 -24 -23 -23 -23 -23 -23 -22 -22 -22 -22 -21 -21 -21 -20 -20 -19 -19 -20 -20 -20 -21 -22 -22 -22
-28 -28 -28 -28 -28 -27 -27 -27 -27 -27 -26 -26 -26 -26 -26 -26 -26 -26 -25 -25 -24 -24 -24 -23 -23 -23 -23 -22 -22 -22 -22 -21 -21 -20 -20 -20 -20 -21 -22 -22 -22 -23 -23 -23
-29 -28 -28 -28 -28 -28 -28 -27 -27 -27 -27 -26 -26 -26 -26 -26 -26 -26 -26 -25 -24 -24 -24 -23 -23 -23 -23 -22 -22 -22 -22 -22 -21 -21 -21 -22 -22 -22 -23 -23 -23 -24 -25 -26
-30 -30 -29 -29 -29 -28 -28 -28 -28 -28 -27 -27 -26 -26 -27 -27 -26 -26 -26 -25 -25 -24 -24 -23 -23 -23 -23 -23 -23 -23 -23 -23 -23 -24 -24 -25 -25 -24 -24 -24 -25 -26 -27 -28
-30 -30 -30 -30 -29 -29 -28 -28 -28 -27 -27 -27 -27 -27 -27 -27 -27 -26 -26 -26 -26 -25 -25 -25 -25 -25 -24 -24 -24 -24 -24 -24 -25 -26 -26 -26 -26 -26 -27 -27 -28 -28 -28 -28
-30 -31 -30 -30 -30 -29 -29 -29 -29 -28 -28 -28 -28 -28 -28 -28 -28 -28 -28 -27 -27 -27 -27 -27 -26 -26 -26 -26 -26 -26 -26 -26 -26 -27 -28 -28 -28 -28 -28 -28 -28 -29 -28 -28
-30 -31 -31 -30 -30 -30 -30 -30 -29 -30 -30 -30 -30 -30 -29 -29 -29 -29 -29 -29 -28 -28 -28 -28 -28 -28 -28 -28 -28 -28 -28 -29 -29 -29 -29 -29 -29 -29 -29 -29 -29 -29 -29 -29

GFSNW_500_temp_222.txt.gz
Temp
-28 -27 -25 -25 -25 -25 -24 -24 -24 -23 -25 -25 -25 -25 -22 -23 -23 -23 -22 -21 -21 -19 -17 -18 -17 -16 -14 -14 -14 -14 -13 -13 -13 -12 -13 -13 -13 -13 -13 -13 -11 -11 -11 -8
-28 -27 -26 -25 -24 -25 -24 -24 -24 -24 -24 -25 -24 -23 -23 -23 -23 -23 -23 -23 -22 -20 -19 -18 -18 -17 -15 -15 -16 -15 -14 -15 -13 -14 -14 -13 -13 -13 -13 -13 -13 -11 -13 -7
-28 -27 -27 -25 -24 -24 -25 -25 -24 -24 -23 -23 -24 -24 -23 -23 -23 -23 -23 -23 -23 -22 -22 -20 -18 -18 -16 -15 -15 -15 -17 -16 -14 -13 -12 -12 -13 -13 -13 -14 -13 -10 -10 -10
-28 -27 -27 -25 -25 -25 -25 -24 -23 -23 -23 -23 -23 -24 -24 -24 -24 -23 -24 -24 -24 -23 -22 -20 -19 -18 -17 -16 -16 -17 -17 -16 -15 -14 -15 -14 -15 -14 -15 -15 -12 -13 -9 -12
-27 -27 -26 -25 -25 -25 -25 -24 -24 -23 -24 -24 -25 -25 -24 -24 -24 -25 -24 -24 -23 -23 -23 -20 -20 -19 -18 -17 -16 -17 -18 -17 -15 -14 -15 -15 -15 -14 -15 -14 -13 -12 -12 -12
-27 -26 -25 -25 -25 -24 -24 -23 -24 -25 -24 -25 -25 -23 -23 -24 -26 -27 -26 -24 -25 -25 -24 -22 -19 -19 -20 -18 -18 -18 -18 -18 -17 -16 -15 -16 -17 -15 -13 -13 -14 -12 -13 -10
-27 -26 -25 -25 -24 -24 -25 -24 -23 -23 -23 -24 -23 -24 -25 -25 -26 -26 -26 -26 -26 -24 -26 -24 -21 -21 -19 -17 -17 -16 -17 -17 -17 -16 -15 -17 -16 -14 -15 -15 -14 -14 -12 -13
-27 -26 -25 -24 -24 -24 -23 -23 -23 -23 -24 -24 -24 -24 -25 -26 -27 -27 -27 -26 -25 -26 -26 -26 -24 -21 -21 -19 -18 -17 -17 -16 -17 -17 -16 -16 -15 -14 -15 -13 -12 -13 -13 -13
-27 -26 -25 -25 -24 -25 -23 -23 -24 -23 -24 -24 -24 -25 -25 -26 -26 -27 -26 -26 -26 -26 -26 -25 -25 -23 -20 -18 -18 -18 -16 -16 -16 -16 -16 -16 -15 -14 -14 -15 -15 -14 -14 -13
-27 -26 -25 -25 -24 -25 -25 -24 -25 -25 -24 -24 -25 -25 -25 -26 -26 -26 -26 -26 -26 -26 -25 -24 -24 -23 -22 -22 -21 -18 -16 -16 -16 -15 -16 -16 -14 -14 -16 -17 -14 -14 -13 -13
-27 -27 -25 -25 -25 -25 -25 -25 -26 -25 -25 -25 -25 -26 -26 -26 -26 -26 -26 -26 -26 -26 -25 -24 -24 -24 -22 -22 -20 -18 -18 -18 -17 -16 -16 -16 -15 -15 -15 -13 -14 -14 -15 -15
-28 -27 -26 -25 -26 -26 -26 -25 -26 -26 -26 -26 -25 -25 -26 -26 -26 -26 -26 -26 -26 -26 -25 -25 -25 -23 -24 -23 -21 -21 -20 -19 -19 -18 -17 -16 -16 -16 -16 -16 -15 -15 -16 -17
-28 -27 -26 -26 -26 -26 -27 -27 -26 -26 -27 -27 -26 -26 -26 -26 -27 -26 -27 -26 -26 -26 -27 -27 -27 -28 -25 -23 -21 -21 -20 -20 -18 -16 -16 -17 -16 -17 -17 -17 -16 -16 -16 -16
-28 -27 -27 -27 -27 -27 -27 -28 -28 -28 -27 -27 -27 -27 -27 -27 -27 -27 -27 -26 -26 -27 -27 -27 -27 -27 -26 -25 -22 -22 -21 -20 -18 -18 -18 -16 -17 -17 -17 -17 -16 -16 -16 -16
-28 -28 -27 -27 -28 -28 -28 -28 -29 -29 -28 -28 -27 -27 -27 -27 -27 -27 -27 -27 -27 -27 -27 -27 -27 -27 -27 -26 -25 -23 -22 -21 -20 -18 -19 -19 -18 -17 -17 -17 -17 -17 -18 -17
-28 -28 -28 -28 -28 -28 -28 -29 -29 -29 -29 -28 -28 -28 -27 -27 -27 -27 -27 -27 -27 -27 -27 -27 -27 -26 -26 -26 -24 -24 -23 -22 -21 -19 -19 -19 -19 -18 -17 -17 -17 -17 -17 -17
-28 -28 -28 -28 -28 -28 -28 -29 -29 -29 -29 -29 -28 -28 -27 -27 -26 -26 -27 -27 -27 -26 -27 -26 -26 -27 -26 -26 -25 -25 -23 -22 -21 -20 -20 -19 -18 -17 -17 -17 -17 -17 -17 -17
-28 -28 -28 -28 -28 -28 -28 -28 -28 -29 -29 -28 -28 -28 -27 -26 -27 -27 -27 -27 -27 -27 -27 -27 -26 -27 -27 -26 -25 -24 -22 -21 -20 -20 -19 -18 -17 -17 -17 -18 -17 -17 -18 -18
-29 -28 -28 -28 -28 -28 -28 -28 -28 -28 -28 -27 -26 -27 -26 -26 -26 -27 -27 -26 -26 -26 -27 -26 -26 -26 -26 -25 -24 -23 -23 -21 -21 -20 -19 -18 -19 -18 -18 -18 -19 -19 -20 -20
-29 -29 -28 -28 -28 -28 -28 -28 -27 -27 -26 -26 -26 -26 -26 -26 -26 -26 -26 -26 -27 -26 -26 -26 -26 -25 -25 -25 -24 -24 -23 -22 -21 -20 -19 -19 -20 -21 -20 -20 -20 -20 -20 -20
-29 -29 -29 -28 -28 -27 -27 -27 -27 -27 -27 -27 -26 -26 -26 -26 -26 -26 -26 -26 -26 -26 -26 -26 -25 -24 -25 -24 -24 -24 -23 -22 -20 -20 -20 -21 -21 -20 -20 -21 -21 -21 -21 -20
-29 -29 -29 -29 -29 -28 -28 -28 -27 -27 -27 -26 -26 -26 -26 -26 -26 -26 -26 -26 -26 -26 -26 -25 -25 -24 -24 -24 -24 -24 -23 -23 -22 -21 -22 -22 -22 -21 -21 -21 -21 -21 -21 -20
-30 -29 -29 -29 -29 -29 -29 -29 -28 -28 -27 -27 -26 -26 -25 -26 -26 -26 -26 -26 -26 -26 -26 -25 -25 -25 -25 -24 -24 -24 -23 -23 -23 -22 -22 -22 -22 -22 -22 -22 -21 -21 -21 -20
-30 -30 -30 -29 -29 -29 -29 -29 -29 -28 -28 -27 -27 -26 -26 -26 -26 -26 -26 -26 -26 -26 -26 -25 -25 -25 -25 -24 -24 -24 -24 -23 -22 -23 -22 -22 -22 -22 -22 -22 -22 -22 -22 -21
-30 -30 -30 -30 -30 -30 -29 -29 -29 -28 -28 -28 -28 -28 -27 -27 -27 -27 -26 -26 -26 -26 -26 -25 -25 -25 -25 -24 -24 -23 -23 -23 -23 -23 -23 -23 -23 -23 -22 -23 -22 -22 -22 -22
-29 -30 -30 -30 -30 -30 -30 -30 -29 -29 -28 -28 -28 -28 -28 -28 -28 -27 -27 -27 -27 -26 -26 -26 -25 -25 -25 -25 -25 -24 -24 -23 -23 -24 -24 -23 -23 -23 -23 -23 -23 -23 -24 -25
-28 -30 -30 -30 -31 -31 -30 -31 -30 -30 -29 -29 -30 -29 -29 -29 -29 -28 -28 -28 -28 -27 -27 -26 -26 -26 -26 -25 -25 -25 -24 -24 -24 -24 -24 -24 -24 -24 -24 -24 -25 -26 -27 -27